GFSSE_500_spd_000.txt.gz
Wind_Speed
14 12 19 23 26 31 30 32 32 29 30 30 31 33 38 36 40 35 39 34 34 36 36 33 32 30 31 32 34 32 28 26 24 23 22 22 21 19 19 17 15 16 16
16 19 24 27 30 25 22 25 27 28 27 30 34 38 38 40 39 39 35 38 41 42 38 40 37 33 31 34 33 30 27 26 24 24 23 23 21 20 20 18 18 18 19
16 19 23 26 27 28 27 28 26 29 24 33 31 31 38 40 41 40 40 37 34 34 38 39 42 38 35 36 31 28 26 23 24 25 24 24 22 21 21 21 21 21 19
23 24 27 30 33 35 35 34 33 32 30 31 34 34 42 44 44 44 45 47 46 19 13 23 28 35 39 39 31 26 24 22 21 23 25 24 25 25 24 24 24 23 23
28 30 33 33 34 34 35 36 38 36 36 30 30 33 36 41 40 44 42 47 45 40 33 29 30 24 34 38 38 37 32 26 20 21 23 26 26 25 26 26 26 25 24
33 33 36 37 40 41 41 40 40 39 34 35 28 30 34 37 35 42 42 40 37 33 34 43 40 34 30 35 34 34 31 27 24 22 23 27 30 28 28 29 29 28 28
35 37 37 38 38 39 40 39 40 38 34 34 34 37 39 42 39 39 43 41 39 38 41 41 42 54 19 20 24 16 22 22 22 24 26 30 32 33 32 32 30 31 30
30 32 34 35 36 34 31 28 28 30 31 32 34 36 37 39 41 35 37 38 38 37 37 41 37 40 45 34 34 27 21 22 24 30 32 32 35 38 38 39 36 35 35
32 33 34 34 32 30 29 28 27 26 26 27 30 31 33 35 37 37 36 38 37 36 38 40 37 37 37 33 36 40 33 31 32 31 36 36 35 38 41 42 41 41 40
23 24 26 25 21 23 25 26 26 26 26 27 29 29 29 31 34 36 37 39 39 40 40 39 39 41 38 40 40 42 42 42 37 37 36 41 38 39 41 41 44 41 42
21 22 24 25 23 24 27 24 25 26 26 28 29 30 32 36 40 40 39 41 44 45 46 47 46 45 45 41 41 46 42 47 47 45 40 42 44 44 47 43 43 44 46
21 23 25 25 25 25 25 25 24 26 29 30 32 33 34 36 38 39 40 41 43 45 47 49 49 45 44 47 50 45 52 52 54 52 49 44 47 44 52 47 47 46 45
14 14 14 16 15 15 15 14 13 14 16 18 21 23 24 25 27 28 30 28 27 31 32 31 34 37 42 47 49 51 57 60 59 56 55 47 44 46 51 51 49 48 47
12 11 11 12 12 13 15 15 15 17 17 18 20 21 23 25 27 30 32 33 32 32 33 37 33 34 37 39 38 40 37 46 60 60 55 52 48 49 51 54 50 46 51
12 12 12 13 15 17 18 19 20 22 23 25 27 28 29 31 35 36 36 36 37 36 34 33 33 33 34 35 35 38 35 39 47 69 68 60 57 51 54 58 54 52 48
15 14 16 16 19 20 21 25 26 27 30 31 32 34 35 35 36 38 40 41 40 41 40 39 37 35 34 34 34 31 38 42 47 47 49 48 57 62 58 59 60 59 56
17 17 18 19 21 23 24 27 29 31 35 36 37 39 41 42 44 44 44 44 46 45 45 45 44 43 41 39 37 32 29 37 36 42 57 53 49 63 65 60 58 59 59
20 20 22 24 24 27 29 33 34 34 38 39 41 43 46 48 50 52 52 51 51 49 47 47 48 48 47 44 41 39 37 33 30 38 33 49 56 51 64 65 61 58 63
21 22 22 23 25 26 29 32 34 36 40 43 45 45 46 49 51 53 54 55 55 54 52 50 50 49 48 48 47 44 42 40 36 32 31 36 33 42 54 61 63 61 60
23 24 26 28 30 31 33 35 38 39 44 45 48 51 50 54 56 59 61 59 58 59 58 58 57 55 51 50 49 48 47 44 41 40 36 33 33 34 35 33 40 49 55
27 29 31 34 34 35 39 41 44 46 48 50 52 55 54 57 59 64 70 71 71 67 62 61 60 60 59 56 50 49 49 50 47 46 44 40 37 35 36 37 37 37 41
33 36 38 41 43 43 45 49 50 52 54 57 59 62 62 62 62 67 67 67 69 70 71 69 66 62 59 58 57 52 49 50 53 50 49 48 45 43 41 41 42 39 39
35 38 42 45 49 51 51 55 56 56 58 60 64 66 67 68 70 69 67 67 68 68 66 68 68 67 62 59 57 57 52 51 53 54 54 54 53 50 48 47 46 46 43
40 41 44 48 49 51 54 54 57 60 60 62 65 68 71 73 74 75 71 69 68 65 64 64 64 63 63 63 62 58 57 55 53 53 56 57 56 56 54 52 50 51 47
44 47 47 51 50 52 56 58 59 60 61 64 68 72 75 74 72 71 68 65 62 63 63 64 62 61 61 62 62 60 60 58 55 55 56 58 60 60 58 56 55 56 53
50 52 52 54 53 54 57 59 61 61 63 68 71 73 72 68 67 65 62 61 58 59 61 62 62 61 59 59 60 59 57 59 56 56 57 59 59 59 62 59 58 55 54

GFSSE_500_spd_003.txt.gz
Wind_Speed
22 27 10 13 21 27 28 30 29 30 32 33 33 32 35 36 36 37 38 42 45 47 42 39 37 37 38 36 36 34 32 32 32 27 25 25 26 24 20 18 19 20 20
16 11 13 19 24 26 26 25 28 28 29 27 33 34 34 39 38 41 37 41 45 48 50 39 41 43 43 39 40 38 38 34 33 32 29 28 27 25 24 25 24 22 20
20 17 18 21 24 23 24 24 27 26 26 26 28 28 32 34 35 35 40 40 44 50 33 31 46 50 48 46 42 39 36 35 33 33 33 32 29 28 28 27 26 25 23
25 17 22 24 24 27 28 31 33 35 33 32 32 32 31 36 35 33 34 39 43 47 42 35 22 36 30 41 42 40 37 36 34 34 34 33 32 30 28 27 27 26 24
24 23 25 28 32 32 33 33 35 37 39 40 38 35 31 33 34 29 35 33 32 34 30 26 29 27 34 29 34 42 38 36 34 35 34 33 33 33 32 31 27 26 25
31 30 29 30 33 35 38 41 44 42 40 38 36 37 36 32 30 36 35 34 32 35 34 30 32 33 34 37 30 39 45 42 38 36 34 33 34 33 33 32 32 31 30
28 30 32 35 36 37 40 38 38 35 31 30 30 33 35 36 34 35 34 33 28 28 29 28 28 27 26 25 32 37 21 37 40 33 30 30 31 34 34 35 34 32 31
30 31 32 33 34 35 36 37 33 32 30 29 26 26 27 28 30 30 28 31 31 29 28 28 30 31 26 25 29 34 34 38 22 42 36 29 28 31 34 36 36 34 33
20 25 29 32 33 35 34 28 27 29 29 29 27 27 28 28 28 29 29 28 30 30 27 29 32 33 31 29 29 28 29 24 30 24 24 30 32 35 36 37 36 36 36
20 21 22 24 21 24 22 22 24 25 26 25 26 26 27 28 29 30 31 31 32 35 35 31 32 33 34 36 32 29 29 29 26 32 33 31 36 40 39 42 40 39 39
17 20 21 20 17 18 18 18 23 24 24 24 25 27 28 29 28 28 28 29 29 30 32 31 32 34 31 29 28 32 31 30 35 37 42 37 35 43 44 45 44 41 42
8 11 14 14 13 12 13 9 10 12 14 15 17 18 19 21 21 20 22 24 25 27 29 29 29 31 30 28 26 27 32 35 36 42 46 45 40 44 44 47 48 44 45
10 8 7 7 8 8 10 11 11 10 10 14 14 18 20 22 23 24 26 29 31 33 34 34 33 31 31 30 31 31 30 34 37 45 49 52 49 45 46 47 49 51 49
10 10 11 10 12 13 15 15 16 19 18 19 23 24 25 28 29 31 33 34 35 34 34 35 38 39 38 35 31 34 31 28 28 37 52 55 56 52 52 51 52 55 53
15 11 14 17 18 19 21 22 23 22 24 24 27 29 30 32 35 37 38 38 38 39 39 39 38 38 39 39 37 33 32 30 31 38 42 59 62 60 60 58 55 53 53
18 17 18 18 21 23 22 26 27 27 29 29 29 32 34 35 37 38 39 40 41 42 42 42 43 44 44 43 43 42 38 34 30 26 38 47 60 68 65 60 57 57 56
19 20 22 22 23 25 26 27 29 31 33 34 34 36 37 39 41 41 42 42 43 44 45 46 45 46 46 48 47 45 44 42 36 34 32 38 43 51 65 64 67 60 58
19 20 21 22 24 27 28 31 31 32 34 35 34 37 39 40 41 44 46 47 48 48 48 46 46 46 47 48 50 50 48 45 45 43 39 37 41 40 53 56 73 74 72
21 22 25 28 30 31 34 35 36 36 39 41 42 42 44 46 48 50 52 53 55 55 56 57 60 57 51 50 51 52 51 50 49 47 46 42 41 40 45 52 63 57 65
23 26 29 30 32 35 36 39 42 43 44 47 49 51 51 52 54 55 56 57 57 60 63 64 64 64 63 58 54 54 54 53 53 52 50 49 47 45 41 41 50 59 58
25 27 31 36 39 39 43 45 46 47 48 50 52 54 55 56 58 60 60 61 62 65 68 68 68 68 68 67 63 57 57 56 56 57 55 53 51 48 45 41 43 44 56
32 36 39 40 42 45 48 48 50 51 51 54 56 58 60 61 61 61 62 65 68 71 72 73 73 72 71 67 66 61 57 58 59 59 58 58 56 53 50 47 43 41 43
39 38 41 45 48 51 52 52 54 54 53 55 58 60 62 63 63 66 68 70 73 74 72 70 66 66 67 65 64 63 59 57 58 59 60 60 62 59 55 54 52 47 45
40 43 44 47 49 52 56 58 57 55 57 58 59 63 63 63 66 69 71 73 73 73 67 63 61 59 62 64 63 62 58 58 58 58 59 61 64 65 62 60 59 57 54
39 39 43 47 49 51 51 53 57 58 59 59 60 61 64 68 68 70 73 74 73 69 64 61 60 59 59 59 58 60 59 58 60 60 57 59 64 68 68 66 65 64 63
41 44 48 49 52 54 57 55 53 55 56 59 61 62 64 67 69 71 71 69 63 60 59 61 59 60 58 60 59 57 57 56 57 60 62 58 61 67 70 71 70 71 70

GFSSE_500_spd_006.txt.gz
Wind_Speed
26 19 17 13 15 29 30 33 27 27 28 29 28 32 31 31 34 34 36 36 35 37 37 48 41 55 53 43 42 39 42 40 39 36 33 31 30 28 29 25 26 28 28
23 16 10 15 23 21 24 21 19 19 29 31 26 27 25 27 29 31 32 37 35 37 41 46 42 40 56 46 45 46 43 43 41 38 37 34 32 29 25 28 28 27 24
18 14 11 17 21 25 23 19 21 25 28 30 29 28 27 34 34 31 33 36 30 33 33 33 30 27 23 41 45 47 50 45 42 41 39 38 34 31 28 28 28 26 25
21 19 19 18 20 26 30 28 29 31 31 34 36 38 41 37 35 30 31 30 33 30 31 30 27 29 32 35 33 46 54 47 42 41 41 39 37 34 31 30 28 27 26
21 18 18 19 24 27 30 32 33 36 35 39 41 42 40 40 36 30 30 28 30 34 33 30 30 26 27 30 29 34 25 48 40 40 43 40 40 38 35 33 29 28 28
27 30 30 27 27 30 34 37 39 40 44 43 40 33 32 31 32 32 31 31 33 37 34 30 31 27 24 22 23 18 26 19 47 41 43 43 42 38 35 32 31 32 31
27 27 28 30 33 35 38 40 41 39 38 36 30 31 30 27 26 27 28 31 31 32 31 27 29 27 28 24 21 19 15 23 22 50 41 39 39 37 35 33 35 34 34
20 20 23 26 28 31 32 33 32 31 30 28 29 30 30 27 25 25 24 23 22 25 25 24 26 27 26 29 24 26 23 18 18 21 48 37 36 34 34 34 34 36 36
17 18 20 22 25 28 27 25 25 24 23 25 26 27 26 25 23 22 22 24 24 26 27 24 24 26 25 25 25 25 26 24 16 17 34 40 39 37 35 36 37 37 36
15 18 20 21 21 21 21 22 24 25 24 27 27 27 26 26 25 23 22 19 17 16 18 18 16 18 20 15 16 15 17 20 20 21 22 34 44 40 38 38 40 40 39
9 13 12 16 17 19 16 17 19 19 19 19 20 21 21 18 16 15 16 17 19 18 20 21 19 20 21 21 20 16 16 17 22 27 28 27 32 37 42 43 43 43 42
12 13 12 5 2 2 5 7 9 8 10 11 12 13 15 17 19 20 21 22 24 25 27 28 28 25 24 23 21 21 22 20 20 26 33 38 40 41 40 42 45 48 47
9 11 12 14 13 12 14 17 19 19 19 21 22 22 23 24 24 26 26 28 28 29 31 32 32 32 30 30 30 27 26 25 25 30 30 40 47 46 47 50 51 51 51
12 14 17 16 17 19 21 20 22 23 23 25 26 27 28 30 30 30 31 32 33 34 34 35 35 36 36 35 34 37 36 31 30 30 30 30 48 51 52 52 54 55 54
16 16 18 21 22 23 25 26 25 26 27 28 30 30 32 34 35 35 35 35 36 36 36 36 36 37 39 39 38 38 39 39 36 33 35 35 33 54 58 57 58 57 60
16 17 20 21 24 26 27 29 29 29 30 31 32 33 33 34 35 36 36 37 38 39 39 39 39 39 40 41 41 43 42 41 41 39 38 38 38 39 51 63 67 63 62
23 23 24 25 24 25 26 29 31 31 33 34 34 35 37 39 39 39 39 40 41 41 42 43 44 44 43 42 42 43 45 47 45 44 43 40 41 42 40 45 65 72 67
24 22 22 23 26 28 29 31 33 35 36 38 40 43 44 45 47 46 46 47 48 48 49 49 50 51 51 50 50 48 45 48 51 50 48 48 46 48 47 46 45 56 75
21 22 23 25 26 30 34 37 38 39 42 46 46 47 49 50 51 53 52 53 55 55 55 56 56 55 56 58 58 58 56 52 51 55 56 53 52 52 52 50 48 46 50
26 28 30 32 36 40 41 42 45 44 46 47 49 51 52 54 55 57 57 57 58 58 58 59 59 60 63 64 65 65 62 59 58 55 59 60 58 56 57 57 54 51 49
34 37 41 43 44 44 45 48 49 51 52 53 55 56 56 55 57 59 60 60 62 62 61 62 63 65 68 70 70 69 68 66 60 61 60 62 64 62 60 60 61 58 53
33 37 40 44 46 48 49 52 54 55 55 56 57 58 60 59 59 60 61 63 63 61 61 63 65 67 69 70 71 73 71 66 66 61 61 64 66 68 66 64 64 64 59
33 33 33 36 44 49 52 54 55 56 55 55 58 59 59 60 61 61 63 63 64 63 63 64 67 68 70 71 72 72 70 69 62 60 62 63 68 71 71 70 69 68 67
33 35 35 38 42 47 49 51 55 57 60 60 60 60 60 61 61 62 63 63 63 66 68 68 70 69 65 63 64 68 69 71 67 63 57 60 65 69 73 74 74 72 72
43 45 46 48 48 52 51 51 55 57 55 56 57 59 59 59 58 59 63 66 67 66 67 71 74 74 70 66 66 68 67 66 68 67 63 58 58 65 68 73 78 76 76
51 48 47 49 52 54 57 57 55 56 59 60 60 60 60 61 64 66 64 64 66 69 69 70 70 69 70 70 69 70 68 67 63 64 64 60 61 59 64 68 75 79 80

GFSSE_500_spd_009.txt.gz
Wind_Speed
33 37 32 20 18 24 27 23 26 25 21 25 19 24 20 28 28 30 32 32 36 30 31 34 36 38 34 35 34 38 44 47 37 37 39 34 31 31 32 29 31 28 26
34 24 12 15 19 21 20 22 19 16 12 15 22 26 26 30 34 33 36 36 34 31 35 29 29 31 28 25 26 25 45 53 51 42 39 39 35 31 31 27 25 26 25
39 31 12 16 16 18 22 24 25 27 26 24 27 31 32 36 40 39 38 38 35 31 30 31 30 30 28 27 29 35 37 40 51 52 42 40 39 35 33 29 27 28 28
39 36 38 27 20 17 22 26 28 26 30 35 34 34 36 40 41 36 35 32 31 28 24 27 28 30 31 28 27 33 36 21 29 45 44 43 41 39 34 30 28 27 28
31 28 23 16 17 20 22 27 29 33 36 39 37 39 41 36 31 32 32 30 28 28 27 30 33 30 28 24 22 24 28 28 23 15 44 46 40 40 35 34 32 29 28
22 23 20 25 28 30 33 34 36 38 39 40 42 40 34 29 28 27 25 25 27 28 28 32 32 29 27 25 24 20 19 25 23 18 19 44 39 40 39 39 35 33 32
19 24 29 33 37 35 34 34 35 36 34 31 31 32 28 28 29 26 25 26 26 26 25 28 28 26 25 25 23 23 22 20 18 23 20 27 41 40 42 42 40 37 35
20 24 28 29 29 28 28 27 25 26 27 26 25 24 25 27 27 26 25 24 22 22 23 25 24 24 23 24 24 23 22 21 18 21 19 22 39 42 39 41 41 41 39
20 20 23 23 24 21 21 21 22 23 24 24 25 26 27 26 27 26 25 24 24 25 23 19 12 13 13 11 13 16 19 22 24 22 20 17 36 46 45 40 41 41 40
20 21 21 19 17 17 19 21 20 20 21 20 20 18 19 20 20 18 16 16 16 15 16 17 16 15 14 15 15 13 13 11 16 20 20 18 33 48 44 43 43 42 40
10 11 10 11 11 11 12 14 16 18 19 18 19 18 18 17 16 17 17 17 18 18 20 22 23 23 22 20 19 19 19 17 15 14 16 18 18 37 44 47 45 44 44
13 12 11 9 8 9 10 13 17 18 19 20 22 22 21 22 22 24 24 24 25 26 26 27 27 27 27 25 23 22 22 21 21 21 18 26 33 29 43 48 48 49 48
14 16 13 11 12 14 15 17 21 24 25 25 26 27 28 29 28 28 28 28 29 29 31 31 32 31 30 30 29 28 27 26 25 24 25 24 25 34 37 45 55 53 53
15 17 17 17 17 20 22 23 24 25 26 28 30 31 31 32 34 33 33 32 32 32 32 32 33 34 33 33 33 32 30 30 30 29 28 29 31 33 36 46 52 54 55
20 20 22 24 24 24 23 23 24 25 26 27 29 31 32 33 34 34 35 36 37 36 36 35 35 36 36 36 36 36 36 35 34 33 34 35 36 35 36 34 55 57 56
21 22 23 25 26 25 26 27 28 29 30 31 32 33 34 37 38 39 40 42 42 42 43 44 44 44 43 44 43 42 42 41 39 38 36 36 41 42 40 39 38 55 64
25 26 26 27 27 28 29 30 31 32 35 37 40 41 42 44 45 45 45 46 47 47 47 47 49 50 50 50 49 48 47 46 46 46 46 44 41 43 46 45 44 44 62
17 21 23 25 27 29 31 35 39 41 41 42 43 46 48 49 50 51 52 51 51 51 52 53 53 53 53 54 55 54 52 50 49 49 49 51 51 47 46 51 51 49 50
21 25 29 32 35 37 40 42 44 45 45 46 49 52 54 55 55 56 56 55 55 56 56 56 57 58 57 58 57 56 56 55 54 54 55 56 55 53 52 50 55 57 56
32 35 35 37 41 43 44 46 48 50 50 50 51 53 54 56 57 57 58 59 61 61 60 60 60 61 62 62 62 61 60 60 60 60 58 58 57 57 57 58 57 61 63
30 31 33 36 39 43 46 48 49 50 51 53 55 56 55 56 58 60 60 61 62 61 61 61 62 63 64 64 64 63 63 64 64 64 63 60 60 60 61 62 62 64 66
32 31 32 34 40 44 48 50 50 51 52 52 54 58 61 63 64 63 61 61 62 63 63 62 60 60 61 61 62 62 62 65 68 70 69 67 65 64 62 63 65 67 69
31 32 36 40 44 48 50 53 55 52 54 53 55 57 60 62 62 63 63 63 61 61 61 62 61 60 59 60 61 63 64 66 68 69 70 71 70 66 66 66 69 71 75
33 38 40 44 49 51 51 52 53 56 56 57 60 62 61 61 63 63 62 61 62 64 66 67 66 66 66 63 64 63 63 66 70 69 65 67 69 69 68 67 71 75 80
40 44 47 53 55 54 54 55 57 58 57 56 57 57 58 60 60 60 61 63 65 66 67 70 68 68 69 68 71 72 73 71 70 70 70 64 64 66 66 66 68 74 77
47 49 54 57 59 59 58 59 59 58 58 59 61 63 63 65 66 68 69 69 67 65 63 64 66 67 69 68 71 70 71 71 72 73 66 63 62 59 62 65 67 68 74

GFSSE_500_spd_012.txt.gz
Wind_Speed
27 28 29 31 27 26 26 24 26 23 18 19 17 12 14 19 22 25 27 29 31 33 32 29 27 30 26 25 22 21 20 27 21 25 35 36 34 33 32 34 31 31 29
30 31 32 28 28 23 23 23 22 19 23 29 27 25 25 28 29 30 33 35 36 34 31 27 24 25 29 28 24 22 20 24 26 28 32 45 38 35 35 35 32 29 30
27 31 32 26 28 31 34 25 25 24 27 29 25 27 30 31 32 33 34 33 33 29 27 25 22 21 23 26 28 25 24 28 26 31 25 39 47 39 35 34 32 30 28
33 28 25 25 25 33 26 22 25 28 34 32 34 36 37 36 35 34 31 29 28 28 26 26 24 23 25 25 25 25 26 23 26 24 21 28 37 51 43 36 35 33 31
17 19 19 14 16 18 18 23 25 32 34 34 36 38 38 37 35 31 27 25 26 23 23 25 26 26 27 24 25 26 25 22 23 17 20 22 36 49 46 39 39 35 33
20 17 15 17 21 22 27 35 35 35 36 36 34 32 31 32 32 28 26 26 26 26 25 25 25 26 26 24 26 24 23 24 19 17 18 19 11 46 51 45 40 37 34
18 17 22 25 28 31 33 32 29 27 26 26 26 26 24 23 23 25 25 24 24 24 24 24 23 25 23 22 23 22 21 24 24 22 18 16 19 23 46 45 41 39 36
16 20 23 24 25 23 21 21 20 20 22 24 25 25 24 24 25 25 25 24 23 23 23 24 25 25 22 21 22 21 21 22 24 23 19 16 26 32 36 48 40 42 41
18 19 19 20 21 21 20 21 21 19 18 17 17 18 19 21 21 22 21 19 20 22 22 19 15 13 13 14 13 13 15 19 22 26 21 20 18 23 34 44 42 40 42
12 10 11 11 11 11 11 10 11 12 15 15 15 15 15 15 15 15 16 17 19 19 19 20 18 18 18 19 20 17 14 15 16 17 21 22 23 22 30 39 42 41 43
10 10 12 14 14 13 13 14 16 17 19 20 21 21 21 21 21 22 23 23 23 23 23 23 24 23 23 23 23 24 22 20 18 16 15 16 23 28 27 33 42 45 46
11 11 13 15 16 16 18 20 21 22 22 23 24 24 24 24 25 26 26 27 27 28 27 27 27 27 27 26 26 28 28 25 23 22 21 19 18 24 20 32 37 46 47
13 15 16 16 15 16 16 17 18 20 22 24 25 26 27 27 27 27 27 27 27 28 28 29 29 28 29 28 28 28 29 30 30 28 27 25 22 22 29 29 32 43 50
14 16 17 18 17 17 19 21 22 22 23 25 26 28 28 30 31 31 32 34 35 36 36 36 35 34 33 32 31 31 32 31 31 31 31 30 29 26 26 30 33 39 41
14 16 19 21 21 22 22 22 23 25 26 27 28 31 32 33 34 36 37 38 38 38 38 40 42 43 41 40 40 39 39 38 36 35 34 33 32 33 33 33 34 38 35
17 19 21 22 23 25 26 28 29 30 31 33 36 38 39 39 39 40 41 42 44 44 44 44 44 44 45 45 44 43 44 43 43 41 39 37 37 37 36 39 40 42 44
22 24 25 26 28 30 32 33 35 37 38 41 44 46 45 45 45 46 47 49 49 47 49 49 47 46 47 48 49 48 47 48 49 48 47 45 43 42 41 41 40 43 47
19 22 24 29 32 33 35 37 39 42 43 45 46 46 47 47 47 48 49 50 51 50 50 51 52 53 54 54 54 54 54 53 52 51 52 52 50 48 49 49 49 47 46
25 28 29 33 36 40 41 42 42 43 45 47 47 48 50 51 51 52 54 54 54 55 55 56 58 59 59 58 57 57 57 58 57 56 57 56 56 55 53 54 55 53 51
29 33 35 38 41 43 43 42 42 45 49 51 52 54 54 54 54 54 57 59 60 61 61 60 60 60 60 60 60 60 61 61 60 58 58 59 60 60 59 58 59 60 58
33 33 35 39 39 41 44 47 48 52 54 54 53 53 54 57 58 59 59 58 59 59 60 59 59 60 60 61 61 61 61 62 61 61 62 62 63 62 61 59 59 60 62
31 32 37 41 42 47 50 50 53 55 56 56 55 53 54 56 58 60 61 60 60 62 62 62 59 57 56 56 58 59 59 61 62 63 65 63 63 61 59 58 58 59 61
33 36 40 43 45 51 52 53 56 54 54 54 53 54 54 54 56 58 60 62 63 64 63 63 64 63 63 61 57 60 63 62 60 60 62 65 64 62 60 60 60 60 62
35 40 42 44 48 53 54 56 56 54 51 52 53 54 54 57 58 60 61 63 65 66 67 68 68 68 68 68 66 62 58 60 63 62 61 63 65 65 66 66 65 64 64
42 44 47 48 52 52 55 54 54 55 56 56 58 59 61 62 64 66 67 68 69 70 69 69 70 70 71 70 70 70 65 60 61 64 62 62 62 62 61 63 66 67 67
46 47 49 50 49 52 53 55 57 58 60 62 62 63 65 67 68 70 72 74 75 76 77 78 78 75 72 65 65 62 64 64 66 66 65 63 63 55 57 56 59 64 68

GFSSE_500_spd_015.txt.gz
Wind_Speed
18 21 23 23 27 30 32 31 26 20 22 17 17 28 31 30 29 27 24 24 27 30 29 27 25 25 20 21 20 19 18 17 18 19 17 22 29 32 33 33 33 32 31
21 23 28 31 33 34 32 29 31 29 26 28 32 28 27 30 28 27 26 29 30 30 25 25 24 23 22 20 20 22 21 22 20 22 20 24 27 33 38 35 33 33 33
25 27 31 29 24 23 24 26 26 27 28 31 32 30 28 31 29 30 28 28 28 25 25 23 24 23 24 23 22 23 22 21 21 22 19 21 21 31 40 40 38 36 34
24 20 18 18 17 14 14 17 24 26 27 34 36 34 32 32 29 27 26 25 25 24 23 24 23 24 26 26 26 28 25 22 24 23 21 18 20 20 35 43 45 40 36
18 19 17 13 12 12 16 21 26 27 30 35 33 30 27 27 27 27 28 25 21 23 24 23 22 21 22 26 25 25 26 25 25 22 21 14 19 25 31 44 47 48 39
19 20 19 17 20 24 26 27 27 25 25 24 23 23 22 22 22 21 21 20 21 22 22 22 22 22 21 22 22 23 25 24 24 23 23 19 20 20 23 43 51 49 44
14 17 19 19 21 21 21 19 18 18 19 19 19 19 18 18 19 20 21 21 21 21 21 22 22 21 22 23 23 23 24 24 25 26 26 28 22 24 20 34 44 50 48
15 15 14 15 17 18 17 15 15 14 12 12 12 13 12 12 13 13 13 14 14 15 17 19 21 21 19 17 17 18 18 19 22 25 25 25 24 25 27 27 30 45 50
7 8 10 11 11 11 10 9 9 10 12 14 16 17 18 17 17 17 17 17 17 15 15 14 15 16 16 16 18 19 19 18 18 19 21 24 28 23 24 28 29 37 43
7 8 10 12 15 15 14 14 15 16 17 17 17 18 17 18 18 19 20 21 21 21 20 21 22 21 19 18 20 21 21 22 20 19 19 19 23 25 28 24 32 39 44
10 11 13 14 14 15 16 17 17 17 18 18 18 18 19 19 19 19 20 22 22 23 24 24 24 24 24 24 23 23 22 23 24 23 21 20 20 23 28 28 28 35 43
11 11 12 14 14 15 15 15 17 17 18 18 19 19 20 21 22 22 22 22 22 23 23 24 25 25 26 26 26 25 24 23 22 24 25 25 23 22 22 27 27 29 37
9 9 10 11 12 14 16 16 17 18 20 21 22 22 22 24 27 27 27 27 28 28 29 29 29 28 28 29 29 29 28 27 26 25 25 25 26 28 25 24 28 27 30
10 11 12 13 15 17 19 20 21 22 25 27 28 28 30 32 35 35 35 34 34 34 35 35 34 34 33 33 34 35 36 35 34 33 32 29 29 28 28 28 29 30 32
14 15 16 17 18 20 21 24 27 29 32 33 34 36 37 39 40 39 39 39 39 39 40 41 40 39 38 39 39 38 38 39 40 40 39 37 35 33 33 31 32 34 33
16 19 22 24 26 27 28 30 32 34 36 37 37 37 38 39 39 39 39 40 41 41 42 42 43 44 44 43 42 41 40 41 42 43 44 43 42 41 38 37 36 35 38
23 24 25 27 28 28 29 31 32 35 38 38 36 37 39 40 40 40 42 42 42 42 43 44 45 45 46 46 46 46 46 46 46 47 47 47 47 46 45 43 43 42 42
25 26 28 30 32 33 35 37 38 39 40 41 43 43 44 45 44 44 44 44 44 44 46 48 50 51 51 52 51 51 51 52 52 51 51 50 50 51 51 49 48 47 48
28 26 29 34 38 40 39 40 41 42 43 45 45 49 51 50 50 49 49 50 51 52 52 52 51 51 50 50 51 52 52 52 53 53 53 53 53 53 54 54 53 53 53
30 32 36 38 39 39 40 41 45 46 49 48 51 51 49 49 49 49 48 49 50 51 52 52 53 53 52 53 53 52 52 53 54 54 54 55 57 57 56 57 58 58 57
33 35 37 40 41 41 43 47 49 50 54 52 53 53 53 51 51 53 54 55 56 57 57 58 60 61 60 59 59 57 56 56 55 55 55 55 57 58 57 57 57 59 61
34 35 38 39 39 44 47 49 49 52 52 52 52 52 52 54 54 53 55 56 58 59 59 59 60 62 64 65 66 64 63 59 58 59 60 60 60 61 60 60 59 58 60
35 38 39 40 44 47 49 51 52 52 51 51 53 55 57 57 57 59 60 60 61 62 63 65 66 66 68 67 65 66 66 63 60 58 60 62 62 63 64 64 63 61 62
37 39 41 43 48 49 48 49 51 52 53 54 58 59 59 60 62 63 64 65 67 66 66 68 71 72 73 73 71 72 71 68 66 62 60 61 63 65 65 68 67 65 63
41 43 45 47 48 47 48 51 53 55 56 60 62 63 64 64 66 67 68 70 70 72 74 75 71 69 71 72 74 70 69 69 70 67 62 63 63 68 68 68 69 69 68
43 45 46 46 48 50 53 55 57 59 62 65 68 69 69 71 72 74 77 77 77 79 79 77 78 77 75 75 76 73 71 71 72 70 65 67 65 68 68 69 69 68 66

GFSSE_500_spd_021.txt.gz
Wind_Speed
25 24 24 24 25 27 27 25 20 20 19 17 14 16 16 18 19 20 21 22 21 19 18 18 19 17 17 19 21 22 23 24 24 24 26 26 26 24 28 30 32 34 36
26 25 24 25 22 21 21 20 17 14 14 15 17 17 18 17 18 21 22 23 21 18 19 19 18 17 18 20 20 22 24 26 26 28 27 27 27 26 26 25 25 32 38
24 24 21 18 19 19 15 13 13 14 16 17 17 16 17 17 16 17 19 19 19 17 16 17 16 17 18 19 18 20 24 27 28 27 27 30 26 28 29 27 31 29 35
19 15 14 14 13 11 11 13 15 15 13 13 13 14 14 15 14 13 15 14 14 14 14 14 16 17 19 20 19 17 20 26 28 28 29 27 31 26 29 27 29 34 38
11 11 12 12 14 13 14 13 13 12 13 13 14 14 14 13 12 11 12 13 14 14 14 15 16 15 15 16 18 18 16 19 22 26 28 29 29 30 28 31 29 27 29
9 10 12 11 11 12 11 9 8 8 9 11 12 14 14 12 11 10 11 11 11 12 12 12 14 14 15 15 16 17 16 17 19 21 24 26 29 27 30 31 30 29 32
6 6 4 6 8 9 10 10 9 9 9 8 9 9 10 10 8 7 7 8 9 10 11 10 10 10 11 12 11 12 11 11 12 14 16 20 28 26 28 31 32 34 33
4 6 5 7 8 7 7 6 5 5 5 6 7 8 9 8 8 9 10 11 12 13 13 14 13 14 14 14 13 13 14 16 15 15 16 18 18 19 24 27 33 36 33
6 5 4 4 4 5 5 5 5 5 6 8 9 10 10 10 10 10 11 11 12 13 14 15 16 16 17 17 17 17 18 18 18 19 19 16 18 17 19 21 25 32 33
4 2 1 2 2 3 4 6 7 9 11 13 14 15 17 17 18 17 16 17 18 18 18 17 17 18 18 19 20 21 21 20 21 21 22 21 22 21 21 22 22 21 24
0 3 5 7 10 11 12 14 15 16 18 18 18 19 20 20 21 21 23 25 26 27 27 26 25 24 23 23 22 22 23 24 25 25 22 24 23 24 24 24 24 23 23
7 10 11 12 14 14 15 17 17 17 19 19 20 21 22 23 25 26 27 28 30 31 32 31 31 30 29 29 28 28 27 26 27 28 28 29 28 26 26 25 25 26 25
10 12 13 14 15 17 18 18 18 20 22 23 24 25 25 27 28 29 30 30 32 33 34 33 33 33 34 34 34 32 33 33 34 33 32 31 33 33 31 29 28 27 27
11 13 14 15 17 19 19 20 22 24 26 28 29 29 30 30 31 31 33 36 37 37 37 38 38 38 37 36 35 36 35 34 35 35 35 34 36 36 37 36 34 32 30
13 15 16 18 20 22 24 27 28 30 32 33 33 32 32 33 34 34 37 39 39 40 39 37 37 38 37 38 38 39 39 38 38 38 39 33 37 37 39 39 39 38 36
17 19 20 23 25 28 30 32 33 33 34 35 35 35 36 37 39 40 42 43 42 40 37 37 37 37 38 38 38 38 40 41 41 42 44 43 42 42 42 42 43 42 42
21 22 24 27 28 30 32 33 34 36 38 39 38 38 39 41 41 42 42 41 40 39 38 38 38 40 40 41 40 41 41 42 44 44 44 46 42 45 46 47 47 47 46
23 26 28 30 30 31 33 34 35 38 38 40 41 43 43 45 44 44 45 45 44 44 44 45 46 47 48 46 45 46 47 46 47 47 48 48 50 47 45 48 48 50 50
27 30 33 34 34 35 37 39 40 43 44 46 47 49 49 49 49 49 51 52 52 52 53 55 56 56 55 54 53 54 52 53 56 54 51 52 52 54 54 48 50 51 52
30 33 36 38 39 40 43 43 46 48 51 52 53 52 52 51 51 53 55 56 56 58 58 59 62 62 63 64 64 65 64 64 62 61 63 62 59 57 56 62 53 53 55
34 36 39 40 42 44 46 47 49 52 55 55 55 54 53 53 55 57 60 62 62 62 63 65 66 68 68 68 70 69 69 69 68 67 67 66 66 66 62 60 67 59 58
37 40 41 44 45 47 49 50 51 54 57 57 56 56 56 57 60 63 64 68 66 66 67 71 72 72 72 71 72 70 71 71 72 74 73 69 68 66 68 68 66 66 64
41 42 44 46 47 49 52 54 55 57 56 56 58 59 60 62 66 67 68 66 69 73 75 76 76 76 76 74 73 73 70 72 71 70 71 74 75 71 61 67 71 68 65
41 44 46 49 51 51 53 54 54 55 56 58 60 61 65 68 67 68 69 71 73 75 76 76 75 74 75 75 74 73 75 74 75 77 73 71 73 73 74 69 67 73 74
44 47 50 51 51 51 51 53 55 56 58 61 63 66 68 68 71 73 74 74 75 75 76 76 76 77 77 77 77 76 75 74 74 74 75 70 68 73 75 75 76 72 73
45 47 47 46 48 51 52 54 55 58 61 65 68 70 71 72 73 75 76 76 77 79 79 80 79 79 79 79 80 81 79 79 80 81 79 77 78 79 77 79 78 80 75

GFSSE_500_spd_024.txt.gz
Wind_Speed
26 25 25 26 24 23 21 19 18 14 9 10 10 11 13 13 14 15 16 17 15 12 11 11 12 12 12 15 17 20 22 25 26 28 31 33 29 29 34 33 31 27 26
20 23 23 23 20 19 20 16 10 7 8 9 9 11 11 12 12 13 15 16 16 16 16 16 14 15 14 14 15 15 18 22 25 28 29 30 33 32 31 33 30 27 29
27 23 21 18 15 13 8 5 8 8 7 8 11 12 13 12 12 12 12 12 11 11 12 12 13 15 14 15 15 15 14 17 22 27 28 32 32 34 34 38 30 30 29
19 17 12 10 9 10 9 8 7 7 9 10 11 11 10 10 10 9 10 11 11 11 12 12 12 12 14 16 16 16 16 16 16 20 25 31 33 33 30 34 29 32 33
11 8 8 9 9 7 6 6 5 5 5 6 8 10 11 10 9 8 8 9 9 9 10 10 12 13 13 14 15 16 16 17 16 15 18 27 30 30 40 28 23 27 30
5 4 4 4 3 2 2 3 3 4 7 6 6 8 8 9 9 9 8 8 9 9 9 9 8 8 9 10 13 14 14 13 13 15 18 21 28 33 31 28 24 25 32
0 2 5 5 6 8 9 8 6 6 4 4 6 7 7 7 8 9 9 9 10 10 10 11 11 12 11 11 10 10 11 12 12 12 15 16 16 21 25 20 21 24 29
7 7 5 4 4 5 5 5 5 4 6 6 6 7 8 8 9 9 9 9 10 10 11 12 14 15 15 15 15 14 15 14 15 16 19 19 18 15 14 15 16 19 23
8 7 5 3 3 4 5 6 8 9 10 11 12 12 13 13 14 15 15 15 15 15 16 16 18 19 19 19 19 19 20 20 19 19 17 19 22 21 17 17 18 16 18
4 1 2 4 6 6 7 9 11 13 14 15 16 16 16 17 17 19 19 20 21 23 24 24 24 24 23 22 22 22 23 23 22 23 20 22 24 22 23 23 21 20 19
1 5 7 8 10 9 14 13 14 15 16 17 19 20 21 22 23 21 25 25 26 26 25 25 26 26 26 27 28 27 26 24 24 25 21 21 28 26 25 24 24 24 24
6 8 10 11 11 13 14 16 18 20 20 21 22 23 24 25 26 26 25 26 26 28 30 31 31 30 29 29 29 29 31 30 30 30 28 25 28 29 29 29 27 27 25
8 9 8 11 13 16 19 20 21 22 23 23 25 26 28 28 27 28 28 29 30 32 35 36 37 37 36 34 33 32 30 31 33 34 32 26 30 30 30 31 32 32 31
7 10 11 15 16 20 22 23 24 26 27 29 28 30 31 31 31 31 33 36 38 39 40 41 40 40 37 34 34 34 35 35 34 34 33 31 32 33 34 34 33 34 35
13 13 15 17 20 24 25 26 29 30 32 32 32 33 34 34 34 35 37 39 40 40 42 39 36 34 33 32 32 32 35 36 37 38 37 34 35 37 37 36 36 36 36
19 21 21 23 23 26 27 29 31 33 35 35 36 35 34 35 38 41 42 41 41 39 38 37 36 36 36 36 36 36 35 37 39 39 40 40 37 39 40 42 41 41 40
24 24 22 23 27 28 29 31 34 35 37 40 41 41 41 41 43 43 43 41 39 40 41 41 41 40 41 42 42 43 45 44 42 44 43 44 43 41 43 43 44 44 43
23 20 15 32 32 31 34 35 38 39 42 45 45 48 47 45 47 45 45 44 43 45 47 50 51 51 50 51 52 52 52 51 51 50 47 49 52 49 46 46 48 49 49
24 27 32 36 36 39 39 40 41 45 47 49 51 53 51 52 51 50 49 48 48 50 53 56 56 56 57 57 57 57 58 59 60 60 60 58 55 57 58 53 50 52 54
27 31 34 39 40 41 45 45 48 49 50 52 53 57 54 55 53 53 54 54 55 57 60 61 60 60 60 62 63 63 64 65 66 67 66 66 65 64 62 64 62 58 55
32 34 39 40 43 45 46 50 51 53 55 56 57 57 55 57 55 57 58 59 61 64 65 65 66 65 66 68 68 68 68 68 69 68 69 70 70 70 69 70 67 67 66
35 38 41 44 46 46 49 52 52 54 56 57 57 57 57 60 59 60 62 65 68 69 69 69 69 69 70 69 71 72 72 71 70 69 68 68 69 71 74 76 75 71 70
39 41 44 46 48 48 52 55 54 54 54 55 58 60 60 60 64 68 71 72 72 72 71 73 74 77 75 73 74 76 76 75 74 70 69 69 61 55 58 65 75 73 70
41 43 45 49 50 51 51 51 52 53 56 58 59 61 64 67 70 72 74 76 77 75 74 76 76 75 76 75 74 74 75 76 76 75 68 65 65 62 57 57 48 64 72
42 44 47 50 52 50 49 51 54 55 57 60 63 65 68 70 73 76 78 79 78 77 79 79 76 76 77 76 75 74 74 75 76 76 74 71 67 67 69 65 64 69 68
43 43 44 46 48 51 52 53 54 57 60 63 65 69 72 76 78 79 80 80 80 82 85 86 84 84 78 78 79 79 78 78 78 80 79 77 77 75 75 74 74 70 72

GFSSE_500_spd_027.txt.gz
Wind_Speed
25 24 20 22 21 22 22 19 19 19 16 15 14 15 16 16 17 18 16 14 13 12 11 11 13 13 13 13 17 16 18 20 24 29 31 29 30 29 29 25 26 26 24
20 20 25 23 24 19 17 16 11 9 9 8 6 7 8 9 9 10 10 9 10 9 9 10 12 13 15 14 13 13 15 16 19 20 24 28 29 32 29 27 29 27 26
24 26 25 20 12 10 10 7 6 4 2 4 6 7 8 8 8 7 6 7 8 7 8 9 10 11 10 12 13 14 15 14 15 20 23 21 27 32 36 35 28 25 21
24 20 14 11 9 11 10 8 4 2 1 3 6 9 10 9 8 8 7 7 7 7 7 7 9 9 11 12 13 15 15 14 14 16 18 18 25 28 33 37 41 22 24
14 11 9 8 7 6 4 2 1 2 5 6 5 6 7 8 9 9 9 9 9 9 9 8 8 8 8 9 11 12 14 16 18 18 18 17 20 26 31 33 40 31 22
10 8 5 2 2 4 7 8 8 7 5 2 1 3 4 5 6 6 6 6 7 7 6 7 8 9 8 9 9 9 11 12 13 15 16 18 19 20 23 26 27 26 24
9 7 7 7 8 9 7 7 5 2 1 3 5 6 7 7 7 8 9 9 10 10 11 11 12 13 13 14 13 14 13 14 14 14 14 15 18 18 18 16 14 15 22
10 9 8 7 5 4 3 2 1 4 5 6 7 8 9 10 11 10 12 12 13 13 13 13 14 15 16 17 19 19 19 19 18 18 18 18 20 19 16 17 15 13 17
11 8 6 3 2 2 4 5 6 8 9 12 12 12 13 13 15 16 17 18 19 19 21 22 23 22 22 21 20 20 22 23 24 22 20 20 22 23 22 20 19 17 16
7 5 2 2 3 5 7 10 12 13 14 15 15 16 16 16 19 20 20 20 21 21 21 22 22 21 23 23 24 24 25 24 25 26 24 23 25 24 24 23 21 19 19
2 4 3 4 7 8 10 12 13 16 18 20 19 20 20 20 21 25 25 24 23 22 22 23 25 26 26 27 26 26 27 26 28 29 27 25 26 29 28 27 25 24 23
2 1 4 6 7 11 13 15 16 18 20 23 24 24 24 24 24 23 24 25 26 27 28 30 31 32 33 32 30 29 29 29 28 28 29 30 31 32 31 31 30 29 28
2 5 9 10 12 11 10 15 18 21 21 24 27 27 26 27 28 28 27 27 29 32 33 34 35 36 36 35 33 29 26 28 29 30 30 31 29 32 32 31 31 31 32
6 6 14 14 14 15 18 21 22 22 25 25 26 29 30 31 31 31 32 33 35 36 37 37 36 36 33 30 28 30 30 29 28 28 27 28 29 32 33 33 34 34 34
9 13 18 22 21 21 28 26 25 27 30 32 31 32 33 33 35 35 36 38 39 39 39 38 37 34 33 32 30 29 29 32 32 33 33 33 32 33 35 36 37 37 37
18 19 18 26 27 15 22 25 29 31 34 36 35 36 38 37 40 40 40 40 38 37 36 35 34 34 34 36 36 37 37 36 36 38 38 38 37 36 38 39 40 40 41
22 25 29 20 18 14 21 28 33 32 34 38 40 42 43 41 43 44 43 41 39 38 39 40 41 42 44 44 43 44 44 43 43 42 43 45 43 42 42 41 42 43 44
26 23 29 34 35 16 35 35 36 39 40 43 50 49 47 45 44 46 46 46 45 43 44 45 47 49 52 53 53 53 53 52 52 50 49 49 49 50 50 49 50 49 47
25 26 28 34 35 36 39 40 44 43 46 51 53 54 54 52 48 47 49 51 51 51 52 53 54 57 59 60 61 59 58 57 57 57 57 56 56 56 55 55 56 55 55
28 28 32 35 40 43 46 46 46 49 50 54 55 54 53 52 51 54 56 55 57 58 59 60 63 65 64 64 62 63 64 63 63 64 65 65 63 63 62 61 60 60 60
30 33 36 40 42 45 47 49 51 52 54 55 55 53 53 55 56 57 58 60 62 63 64 66 68 70 70 72 73 73 73 71 69 69 70 70 71 71 70 68 68 67 65
34 38 40 41 44 47 49 50 51 53 53 53 53 56 57 58 60 62 63 65 66 67 69 71 74 75 77 80 81 80 79 75 74 72 70 72 74 75 75 76 75 74 73
38 40 43 44 46 48 49 50 49 48 49 51 54 56 59 62 64 66 68 70 73 76 78 81 82 82 81 78 78 81 82 82 81 75 71 73 73 73 72 73 75 74 75
41 42 44 46 45 45 47 47 47 48 50 53 56 59 60 63 67 72 74 77 80 82 83 85 84 82 81 80 79 81 84 85 83 81 75 74 73 71 71 70 68 62 58
40 43 44 45 46 47 43 43 45 49 53 56 59 63 66 69 72 75 79 81 82 83 82 80 81 80 79 80 81 82 83 84 84 85 79 75 76 75 71 73 73 72 71
39 39 39 40 45 47 48 50 51 53 55 59 64 68 72 75 78 80 82 83 81 80 81 81 81 81 82 83 82 83 84 83 84 85 84 80 79 78 78 77 76 74 74

GFSSE_500_spd_030.txt.gz
Wind_Speed
18 20 22 20 22 25 24 20 19 20 16 13 11 13 14 15 15 15 15 15 14 12 12 12 13 14 16 16 16 15 16 18 20 23 27 28 27 25 26 24 26 27 24
20 23 22 24 22 20 15 13 12 10 9 8 8 10 12 12 11 11 10 10 9 10 9 9 10 11 14 15 15 15 15 16 17 18 17 19 22 25 24 24 24 25 25
24 25 26 21 16 13 11 12 9 8 6 7 6 6 8 8 8 8 8 9 9 9 9 8 9 10 11 13 15 16 17 19 20 20 20 16 18 23 27 23 23 14 24
29 26 18 14 12 12 13 10 7 6 4 1 5 7 9 9 8 7 7 7 7 7 8 8 9 9 10 11 13 15 16 17 18 18 15 16 20 21 26 28 23 23 26
24 16 14 10 9 7 3 1 2 3 6 3 2 3 4 4 4 3 4 5 6 7 9 10 10 10 11 11 12 13 15 17 18 17 15 15 19 22 22 25 27 23 20
16 13 10 5 2 5 6 7 7 5 2 1 3 5 6 6 6 7 7 8 9 10 11 12 13 14 14 15 16 17 16 16 17 17 16 15 16 18 20 22 22 24 22
13 9 4 7 8 7 6 5 3 2 2 4 6 8 9 10 9 11 12 13 13 14 14 15 15 15 14 16 18 20 21 20 19 20 19 18 19 19 20 20 19 18 20
10 6 9 8 7 5 2 1 3 4 6 7 10 12 13 15 14 15 16 17 17 19 19 20 21 21 21 22 22 22 23 24 23 23 23 22 23 22 21 21 22 19 19
10 11 10 7 5 3 4 6 7 8 10 12 14 15 17 18 19 19 19 21 22 22 23 22 22 22 21 20 21 23 25 26 25 26 25 24 26 26 25 24 23 23 20
11 8 6 4 5 6 8 10 12 12 13 14 17 18 20 22 23 23 24 25 24 24 25 24 23 23 23 24 24 25 26 26 27 29 29 28 28 28 27 27 27 26 25
8 7 6 7 9 11 12 11 11 13 16 18 18 20 22 23 25 27 27 26 26 25 25 26 26 27 28 29 29 29 30 29 28 28 28 30 30 31 30 29 29 28 28
5 8 8 9 12 11 10 11 13 16 19 20 21 21 22 23 24 25 27 27 27 27 28 29 31 32 32 33 32 31 29 30 30 28 29 29 29 32 34 35 35 33 32
8 11 10 10 13 14 14 14 18 21 22 23 25 23 24 24 26 29 29 30 31 32 34 35 36 36 35 34 35 31 28 27 28 28 29 29 29 30 33 33 34 35 35
9 11 13 14 14 14 15 17 19 22 23 25 29 28 28 28 31 34 33 34 35 35 37 36 36 36 36 34 31 31 31 31 29 29 29 30 31 30 31 32 32 33 35
12 14 20 19 18 27 21 20 26 24 24 26 28 29 27 31 35 38 38 39 39 37 35 33 32 32 32 31 32 31 30 32 35 37 35 36 36 36 36 36 37 37 36
11 12 17 21 20 19 13 34 27 29 28 33 35 33 35 40 39 41 40 39 37 35 33 34 35 34 33 35 35 37 39 39 39 41 43 44 43 42 42 41 41 42 42
18 16 20 19 19 20 16 28 29 36 37 39 38 43 42 42 41 40 40 40 39 40 39 39 41 41 43 44 44 44 47 48 49 48 47 47 47 48 48 46 44 44 45
20 23 24 26 20 26 29 32 32 37 41 42 46 46 46 43 40 37 38 42 43 44 45 46 47 47 48 50 51 53 54 56 56 56 56 54 53 52 51 53 53 52 51
24 28 27 28 31 33 35 38 40 41 41 44 48 49 47 44 43 43 43 43 45 48 50 52 53 55 56 56 57 58 59 61 62 63 63 62 61 60 60 59 58 60 59
23 27 29 31 36 40 42 42 44 44 46 49 49 48 47 47 48 48 50 51 52 53 54 56 58 61 63 64 65 65 65 67 68 70 72 73 73 72 70 67 67 66 65
29 32 31 40 43 46 49 49 49 51 52 52 50 48 48 49 51 54 56 58 60 62 63 65 67 69 72 74 75 75 76 78 79 80 80 81 81 81 81 78 76 73 71
31 34 41 44 48 51 51 51 52 53 53 52 52 52 54 56 58 60 63 66 69 71 74 75 75 77 77 78 80 81 79 78 78 81 82 80 80 81 81 82 82 79 76
33 37 40 44 46 48 49 50 51 50 48 49 51 53 55 58 61 65 70 74 76 78 81 83 84 86 86 85 83 83 83 82 81 79 79 80 77 79 81 82 82 81 80
36 38 40 43 46 48 49 49 47 47 49 51 52 55 59 63 68 72 76 78 81 83 86 88 88 86 85 83 83 84 85 87 86 80 79 78 78 79 80 79 79 81 80
37 40 42 44 46 46 43 41 42 45 47 49 54 58 61 67 71 75 78 81 82 84 83 82 81 80 81 81 82 82 82 83 85 83 76 78 80 82 82 80 79 80 80
39 42 45 46 44 42 41 41 41 45 50 56 62 67 71 74 78 81 82 84 84 83 82 81 80 81 81 82 84 85 85 84 85 87 86 82 82 83 85 85 83 82 81

GFSSE_500_spd_033.txt.gz
Wind_Speed
21 21 23 23 22 26 27 21 15 15 14 13 12 14 16 17 16 15 14 14 15 15 15 13 13 14 15 16 16 16 17 17 16 16 16 17 19 20 20 20 22 25 28
25 26 24 24 27 26 19 12 11 11 9 9 10 11 10 9 9 9 9 10 11 11 12 12 13 13 14 14 15 17 18 17 16 15 16 15 16 16 18 18 18 22 23
29 27 27 27 25 19 13 11 11 9 7 6 4 6 7 7 7 7 7 7 7 8 8 10 11 12 14 15 15 16 17 17 17 16 16 18 17 18 16 17 15 18 19
30 29 25 23 18 12 9 8 5 4 2 3 2 1 2 3 4 4 5 5 6 8 8 9 11 12 13 14 16 15 18 17 17 16 15 17 18 19 19 19 17 16 17
35 32 22 18 11 5 3 0 2 4 5 4 4 5 5 5 6 7 8 9 10 12 13 14 14 16 16 17 17 17 17 18 17 18 16 16 17 17 17 17 18 17 18
33 23 17 10 3 4 6 7 6 6 6 6 8 8 9 9 10 11 12 14 15 17 16 17 18 18 19 19 18 19 20 20 20 20 20 19 19 19 19 19 17 16 15
22 16 10 6 9 9 8 7 6 7 8 9 11 11 13 14 15 17 18 19 20 21 22 22 23 23 23 24 24 25 25 24 24 22 22 22 23 22 21 20 19 20 18
15 12 9 12 11 8 6 7 8 9 10 11 13 15 17 19 20 21 21 22 23 24 25 26 26 27 27 27 27 26 26 25 27 28 26 25 27 27 25 23 20 19 19
12 11 13 10 8 7 8 10 11 11 12 14 16 18 19 20 22 24 24 26 28 29 30 30 29 28 27 27 26 26 27 26 26 27 28 29 29 30 30 27 25 23 21
12 12 10 10 10 9 11 12 12 13 13 15 17 20 21 24 25 26 26 27 28 29 28 29 29 28 27 27 29 29 31 31 29 30 29 29 31 33 33 31 29 26 26
12 10 11 12 11 12 13 13 14 14 17 20 22 22 23 23 23 24 25 27 28 28 28 30 30 31 31 31 31 32 32 32 31 29 30 30 30 31 34 35 33 32 31
9 10 11 11 12 13 13 15 17 18 21 22 23 23 24 24 25 26 27 28 30 31 31 33 34 35 36 35 35 34 33 31 28 28 27 27 28 30 33 34 35 36 37
9 11 10 11 13 14 16 18 21 21 24 25 24 26 27 27 27 28 29 31 31 32 33 34 35 35 35 34 34 33 31 31 29 27 28 29 29 29 30 32 33 35 35
10 9 9 14 16 18 17 18 23 20 27 24 26 28 26 26 28 31 36 36 33 33 33 32 31 29 29 30 31 32 31 30 31 31 31 31 31 32 34 34 34 34 34
9 12 14 15 18 21 19 18 24 26 26 29 25 31 32 28 33 35 37 37 34 31 31 30 28 28 29 29 30 30 30 33 35 36 37 38 38 39 40 40 41 40 39
11 15 19 18 19 17 16 22 16 22 28 28 30 34 33 39 38 37 38 38 34 32 31 32 32 32 32 32 33 35 36 38 39 42 44 45 46 45 45 45 45 47 46
15 18 18 18 18 21 17 18 25 31 34 34 36 36 38 42 41 40 35 35 37 37 37 37 37 39 40 39 40 40 42 44 45 47 49 50 51 51 51 50 50 49 48
18 20 21 24 22 23 24 26 33 37 38 40 40 42 46 44 42 39 38 38 39 41 43 44 44 45 47 48 49 50 51 52 53 54 55 55 55 55 55 55 53 54 55
20 21 21 16 26 23 23 39 42 43 43 41 44 48 47 45 41 39 38 40 41 43 44 47 49 51 52 53 55 56 58 60 62 63 65 65 65 65 65 64 63 63 62
23 21 17 27 27 34 42 44 46 45 46 45 48 47 47 44 44 43 43 44 46 50 53 56 58 59 60 61 62 63 65 66 67 69 70 70 71 72 72 73 73 74 72
19 19 25 28 37 44 46 48 49 50 52 52 52 50 46 46 46 47 50 54 58 61 63 65 65 67 68 70 70 69 69 70 71 73 74 74 75 76 77 77 78 79 79
22 28 32 38 43 46 49 50 52 53 54 54 52 50 49 48 51 55 59 63 67 69 72 75 77 78 79 80 81 80 81 78 77 76 79 80 81 82 82 81 80 81 82
26 31 35 41 46 48 50 52 53 54 54 51 49 48 49 53 57 62 67 70 74 77 79 81 83 85 86 86 86 86 85 84 84 79 79 81 82 84 85 85 85 85 84
31 38 43 45 49 49 50 52 53 52 50 50 51 54 58 61 65 69 73 76 78 81 83 84 85 86 86 85 84 84 85 86 88 88 85 83 85 87 87 87 86 86 85
39 42 42 46 48 52 51 49 45 44 45 49 52 56 60 64 69 72 75 79 82 84 86 87 86 85 84 84 85 85 86 87 89 89 86 85 88 91 91 91 88 87 85
40 39 43 47 51 45 42 41 41 44 48 52 56 61 65 69 73 78 82 85 87 87 86 86 86 87 87 89 90 90 90 90 90 92 93 91 93 92 94 96 95 93 90

GFSSE_500_spd_036.txt.gz
Wind_Speed
21 24 24 23 24 27 32 27 17 11 8 7 7 8 9 9 9 9 9 10 10 10 10 11 11 12 13 13 14 13 14 14 14 13 15 17 18 18 18 18 16 18 18
22 27 29 28 28 31 28 17 9 6 5 4 6 7 7 7 7 7 8 7 7 8 8 8 10 10 11 12 12 13 14 13 13 15 18 20 18 18 17 15 14 15 16
25 30 31 27 29 27 19 11 7 4 3 2 2 2 3 4 4 5 6 7 8 9 10 11 12 13 13 13 13 12 13 14 13 11 13 16 17 18 18 17 17 15 13
28 32 31 32 26 21 12 7 2 1 2 2 2 2 2 4 5 7 8 10 11 12 13 14 15 16 17 17 17 16 15 15 15 16 15 14 13 14 15 15 16 15 15
32 35 31 25 19 12 6 2 4 4 5 5 5 6 8 9 10 11 12 14 16 17 18 19 20 21 22 21 21 19 18 18 19 19 18 18 18 17 15 16 16 14 14
34 34 24 19 12 6 5 5 6 6 6 6 8 10 11 13 14 16 18 19 20 21 23 23 24 23 25 25 24 25 24 23 25 23 21 22 22 22 21 18 17 18 17
28 23 18 13 9 9 9 8 7 7 8 9 11 13 15 17 19 19 21 22 24 24 25 25 27 28 29 28 29 28 28 27 25 25 25 24 24 24 24 24 21 18 16
18 15 12 10 10 10 9 9 9 9 10 12 14 15 18 19 21 22 24 26 27 28 29 30 31 32 32 31 30 29 27 25 25 26 25 25 27 28 27 26 25 23 21
14 12 11 12 12 11 10 10 11 11 13 14 16 18 20 22 24 26 28 27 27 26 26 27 28 28 28 29 29 28 28 28 28 28 30 29 28 28 30 30 28 26 24
13 11 11 12 10 12 12 12 12 13 15 16 18 21 24 26 27 27 27 26 26 26 27 28 27 27 27 28 30 30 30 30 31 31 29 31 30 30 30 30 30 30 28
9 9 10 10 11 13 12 14 15 16 16 17 20 23 25 26 28 29 29 28 28 28 31 31 30 31 32 32 31 33 34 32 30 29 28 25 26 28 29 29 29 29 31
7 7 7 9 10 13 14 15 18 20 19 19 20 25 24 27 30 29 29 30 29 32 35 34 34 33 33 35 35 34 33 32 30 27 27 25 24 24 25 27 29 30 30
6 7 8 9 11 13 15 18 20 22 25 22 24 26 26 24 28 30 30 33 35 38 37 37 34 33 32 31 31 29 30 28 28 28 27 26 26 25 25 26 28 29 30
7 5 7 11 15 18 19 21 22 23 29 28 25 31 26 26 28 29 34 38 38 36 36 35 32 30 29 28 28 27 30 31 29 30 32 33 32 30 31 32 33 32 32
6 8 11 16 19 21 21 23 23 23 22 25 30 29 28 29 32 32 38 40 40 36 33 32 30 30 28 28 29 29 30 31 32 34 35 36 37 38 38 37 38 39 40
10 14 17 20 24 24 24 20 20 14 17 23 29 30 32 33 34 38 42 42 40 36 35 34 32 32 32 32 32 34 35 35 36 38 39 40 40 41 42 43 43 42 43
14 17 20 24 26 22 21 20 18 21 20 28 33 34 34 37 40 44 43 39 38 37 37 36 36 34 36 38 39 40 41 43 45 45 46 47 48 48 48 47 48 48 49
17 19 25 24 24 24 24 30 18 30 31 35 35 36 41 42 44 44 42 39 38 38 38 37 39 42 45 48 49 51 52 52 53 54 55 55 54 55 55 55 55 56 54
18 20 22 23 20 32 22 27 36 39 41 38 40 44 46 47 47 45 42 40 39 39 42 44 49 52 53 54 57 58 60 61 62 62 62 61 62 63 63 64 64 63 63
18 21 20 18 31 29 33 40 44 46 47 48 50 50 50 51 49 46 43 40 42 46 50 53 57 59 62 65 67 68 69 70 71 72 73 72 71 70 69 69 69 70 70
20 19 18 21 36 37 39 45 46 46 53 53 53 52 51 50 46 43 44 49 53 56 60 63 65 69 71 73 75 76 77 78 78 78 78 78 78 78 76 74 72 72 74
19 20 28 34 39 45 47 50 52 53 53 55 54 52 50 46 45 48 53 58 62 66 69 72 74 77 79 81 82 83 84 82 80 80 80 80 81 81 81 81 80 77 76
28 29 33 36 39 45 49 50 53 55 56 54 51 48 46 49 55 59 63 66 69 72 74 76 78 80 82 83 85 87 88 90 91 88 85 84 83 83 85 85 85 84 83
29 33 37 40 44 48 50 53 55 54 50 49 47 49 53 56 58 61 65 68 71 75 77 80 82 84 85 88 89 91 91 93 94 94 94 92 91 90 91 90 89 89 87
33 38 42 43 46 45 50 52 49 46 46 47 50 53 55 58 62 66 69 73 75 79 81 85 87 90 92 93 95 95 95 95 96 97 95 92 90 92 97 98 99 98 97
39 46 47 37 49 47 46 48 47 44 45 48 51 55 59 64 67 70 74 77 81 85 90 92 93 95 96 96 96 97 97 94 89 85 84 81 81 81 84 88 89 92 95

GFSSE_500_spd_039.txt.gz
Wind_Speed
18 18 19 23 24 26 27 29 26 15 3 2 5 7 8 9 8 8 6 6 8 9 9 9 9 9 10 11 12 12 12 10 10 12 13 14 15 16 17 15 14 15 18
19 19 19 24 26 28 27 25 16 6 2 5 6 6 5 5 5 5 5 7 9 9 10 10 11 12 11 11 10 11 12 13 13 13 13 14 15 14 16 15 15 14 15
20 18 20 25 28 25 22 18 10 5 6 8 5 3 2 1 3 6 8 11 12 14 15 16 16 16 15 14 13 13 13 14 14 15 15 14 13 12 12 13 13 13 13
11 17 22 25 24 20 16 11 6 6 7 6 3 2 3 5 8 10 11 12 14 16 17 19 20 21 20 20 19 19 17 17 17 17 17 16 16 15 14 12 12 11 11
16 20 22 19 17 14 11 5 5 7 7 5 4 6 8 9 11 13 15 17 18 21 22 23 24 24 24 24 24 22 22 22 22 21 22 21 20 20 18 17 14 13 12
17 20 19 16 12 12 7 6 7 7 7 7 7 8 10 13 15 17 18 20 21 22 24 25 27 28 28 28 28 27 26 25 26 25 24 23 23 24 23 21 20 17 15
16 16 14 11 10 10 9 8 7 7 8 8 9 12 14 16 18 21 23 24 26 26 27 28 28 28 29 30 30 28 27 25 25 24 22 22 22 24 26 26 24 22 20
12 10 10 9 9 11 8 7 7 8 10 11 13 15 18 19 22 25 27 27 27 26 25 25 25 25 24 25 25 24 24 23 23 23 24 24 24 24 26 27 27 26 25
7 7 8 11 11 10 8 8 9 11 12 14 16 17 18 22 24 26 27 27 27 26 27 27 27 28 27 26 25 26 25 25 26 26 27 28 29 27 27 28 27 26 28
6 7 8 9 10 9 8 9 12 13 15 16 17 18 20 22 23 25 25 26 27 26 28 29 28 30 31 30 29 28 28 29 30 32 32 31 30 29 27 26 29 28 26
6 7 8 10 8 7 8 12 14 15 16 17 19 20 20 24 27 26 26 26 28 28 30 33 36 36 35 35 34 32 31 30 28 28 30 31 30 30 27 23 25 28 27
7 7 6 5 6 9 14 15 15 16 19 21 21 21 21 22 28 31 30 29 29 31 35 36 38 38 36 35 35 34 32 30 27 26 27 27 27 29 26 24 24 24 25
6 5 5 8 11 13 15 16 17 19 22 22 23 23 23 26 29 29 30 32 32 35 38 39 37 37 34 31 30 30 30 29 28 27 27 26 25 26 28 27 26 25 25
5 6 8 10 13 16 18 19 21 24 25 22 23 23 23 26 30 31 32 34 36 37 40 40 38 36 31 29 29 28 28 29 28 28 28 28 29 29 29 31 32 32 31
6 7 9 13 17 19 21 25 26 28 27 25 21 21 24 29 32 32 32 33 38 42 43 44 41 37 34 31 30 30 30 31 31 31 31 33 33 34 35 35 36 37 37
8 9 11 15 18 22 23 27 29 26 26 25 21 22 27 29 32 33 37 38 40 43 44 43 43 38 35 32 31 33 35 37 38 39 39 39 40 40 41 41 42 43 44
11 13 16 18 19 23 24 29 34 35 28 24 23 24 28 33 38 40 44 43 43 42 42 40 39 37 35 36 38 42 45 46 46 47 48 49 50 50 50 51 50 50 50
14 16 19 21 23 31 28 33 38 35 25 27 35 38 39 42 42 42 44 43 40 39 38 38 37 39 41 44 47 51 53 54 56 56 57 59 59 59 59 59 59 58 58
19 22 23 26 26 29 26 31 21 26 28 44 37 41 43 44 46 45 43 40 37 35 36 39 43 46 49 52 56 59 62 64 66 68 69 69 69 69 69 69 68 67 65
19 20 19 23 28 30 36 35 45 35 32 39 42 47 48 49 47 44 40 37 37 41 44 47 50 54 57 60 63 66 68 69 71 72 74 75 76 77 77 77 76 76 75
19 20 18 25 32 32 42 46 47 47 49 50 51 53 49 46 43 39 38 41 46 50 53 57 59 61 65 67 69 70 71 74 75 76 77 78 80 81 82 83 83 82 80
24 24 25 30 34 38 45 50 51 52 51 51 52 49 46 42 42 46 48 52 56 58 61 63 65 68 69 72 74 77 80 81 80 83 85 86 87 87 87 88 89 89 89
29 32 35 36 37 42 47 48 51 53 56 56 52 52 49 48 49 52 54 56 58 61 63 67 70 73 77 80 83 85 88 89 91 95 97 98 95 93 92 91 91 92 92
30 33 33 35 38 43 48 47 46 55 54 53 50 49 48 51 53 55 57 60 62 66 72 76 79 82 86 89 89 90 94 95 100 106 108 106 101 99 99 100 100 99 97
26 31 35 36 41 48 44 42 52 51 47 48 51 51 53 55 57 59 62 65 69 75 79 83 86 90 93 94 95 97 98 103 110 110 101 91 89 86 85 85 89 94 98
27 34 32 43 35 40 51 51 50 49 48 49 50 53 56 57 61 64 67 72 77 82 86 88 91 94 94 95 96 100 109 109 95 83 76 70 64 60 58 64 71 76 81

GFSSE_500_spd_042.txt.gz
Wind_Speed
27 22 17 17 17 19 21 22 20 18 11 7 5 6 7 5 4 4 5 6 6 7 7 7 9 9 10 9 9 10 10 11 11 11 12 11 12 12 13 13 14 14 14
27 21 18 17 16 21 20 19 17 14 10 8 8 6 5 2 2 4 6 7 9 10 11 12 13 13 13 13 13 14 14 13 14 13 13 14 13 12 10 10 10 12 15
23 23 17 12 16 18 18 16 15 12 10 11 8 5 2 1 4 6 8 10 12 14 15 16 17 17 18 18 17 17 17 16 17 16 17 16 16 16 13 11 10 10 11
27 14 9 12 14 15 14 13 10 7 10 10 7 4 3 4 7 10 13 16 17 18 19 20 21 21 21 22 22 22 21 20 20 20 20 20 19 19 18 16 12 11 12
24 10 8 11 13 12 11 11 5 8 12 10 7 6 5 8 10 13 15 18 21 22 23 24 25 25 26 26 26 26 26 24 24 23 23 23 22 21 21 20 18 16 13
11 5 6 10 11 9 10 8 8 9 10 8 7 6 9 11 13 15 18 20 23 24 25 25 25 25 25 25 26 25 25 24 24 25 24 22 19 20 21 21 22 21 19
4 5 7 9 9 10 10 9 9 8 7 7 7 9 12 14 15 17 20 22 23 23 24 24 24 25 26 25 24 23 22 21 20 22 23 23 21 20 20 21 22 23 23
4 1 9 9 9 11 10 10 8 7 7 7 10 13 15 16 16 19 21 22 23 23 24 24 24 25 24 25 26 26 25 23 23 23 24 25 25 25 25 25 24 25 24
4 9 9 11 11 12 11 10 8 7 9 11 14 16 17 17 20 21 23 27 26 25 23 23 23 24 25 29 31 28 27 27 28 29 28 28 29 29 29 28 28 26 26
9 10 11 13 14 15 11 9 8 10 13 16 17 18 18 20 22 23 23 25 27 27 26 25 26 28 30 30 31 32 30 29 30 31 31 32 31 31 30 31 30 29 28
11 12 13 15 16 12 9 9 12 14 17 18 19 18 20 23 21 20 25 28 30 29 29 29 31 33 35 35 35 34 33 33 32 31 30 29 30 29 29 30 30 30 29
13 13 15 14 11 9 10 13 16 17 18 19 21 21 22 25 23 23 25 27 30 31 34 35 35 35 36 37 36 35 34 33 33 33 31 30 28 27 27 26 28 29 29
13 13 11 9 9 11 14 15 17 17 20 22 24 23 27 25 22 22 26 29 32 34 35 36 36 38 37 35 34 34 32 31 31 31 31 31 30 29 28 27 27 27 27
10 8 8 9 11 12 13 15 17 21 23 25 28 27 28 28 25 24 26 30 32 34 38 39 40 40 39 37 34 34 33 32 30 30 32 31 32 32 33 32 31 31 32
8 7 8 9 11 13 16 18 21 25 27 31 33 31 30 29 26 27 27 33 36 39 41 42 41 40 40 39 38 35 35 34 33 32 34 33 35 36 37 38 38 38 37
9 10 11 11 13 16 18 20 24 30 31 35 35 29 27 25 31 33 34 38 40 41 41 41 41 40 38 37 37 36 35 37 38 38 41 43 41 43 44 45 45 45 45
13 13 12 14 16 18 23 26 29 35 38 34 24 23 29 41 39 40 41 44 43 43 42 39 36 36 36 36 37 38 40 43 44 47 49 50 52 52 53 54 55 54 54
11 13 15 17 19 22 27 32 36 41 34 38 40 36 37 36 40 43 45 43 40 37 36 34 33 34 37 40 42 44 46 49 51 53 56 58 60 62 63 61 62 62 62
16 19 19 20 22 25 31 32 37 35 38 45 40 38 38 42 44 45 42 38 37 35 34 35 38 41 43 46 49 50 53 55 58 61 63 66 68 69 71 72 72 73 71
18 20 23 25 25 29 28 25 35 45 43 43 39 39 40 42 43 41 39 37 36 37 38 42 46 48 51 53 54 57 61 62 64 67 69 71 74 74 76 77 79 81 81
19 21 23 25 29 34 35 36 40 44 46 47 48 49 50 49 46 41 38 38 41 43 47 50 52 55 56 59 63 66 70 72 72 74 75 79 79 80 81 83 85 87 88
20 24 27 30 33 36 38 40 42 45 50 50 48 53 54 52 49 48 49 49 51 52 53 54 56 59 63 68 70 72 75 78 82 85 85 84 86 87 88 91 94 96 98
23 28 30 32 34 36 36 40 45 49 52 51 54 54 52 51 51 53 54 55 55 56 57 59 62 66 69 74 78 80 83 87 89 90 92 94 93 92 95 100 104 106 107
25 28 30 30 32 35 37 43 48 48 50 57 57 52 50 49 51 54 56 58 59 61 63 66 70 74 79 83 86 88 91 92 93 93 94 95 98 101 104 105 105 102 100
28 29 32 34 34 36 41 45 47 53 52 50 51 53 53 53 55 57 60 62 64 65 69 73 77 82 86 89 92 95 96 95 96 98 102 103 101 94 87 77 74 75 78
22 22 22 27 31 35 39 43 46 49 51 52 53 53 55 57 59 62 63 64 66 69 74 79 84 89 92 94 96 97 97 98 99 102 95 87 76 66 62 59 62 66 67

GFSSE_500_spd_045.txt.gz
Wind_Speed
34 34 33 30 24 21 19 19 20 19 15 12 7 8 9 6 4 4 4 4 5 5 6 8 10 11 11 12 13 14 15 15 15 14 14 14 13 12 13 13 13 14 14
36 35 33 32 25 21 17 18 18 17 13 9 8 9 6 4 2 0 3 4 6 8 10 11 12 13 15 15 16 16 16 17 18 17 16 16 16 15 14 14 14 12 12
37 36 35 29 20 13 15 14 16 15 11 10 11 8 5 3 2 3 6 8 10 12 13 15 16 17 18 19 20 21 21 20 20 21 21 20 19 18 17 16 15 14 13
40 38 38 26 16 12 13 13 14 11 9 11 11 8 6 5 5 7 9 11 13 15 17 17 18 19 19 20 21 22 22 24 23 23 22 25 20 22 21 20 19 17 16
43 34 26 12 10 12 13 14 10 9 11 13 12 9 7 7 9 11 13 15 17 18 20 20 20 19 18 18 19 20 21 21 22 23 22 25 23 22 20 21 20 20 19
47 44 23 12 12 13 13 11 10 11 13 14 11 9 8 10 12 14 16 18 20 21 22 21 21 21 19 19 20 20 21 21 20 21 22 19 21 21 21 21 21 20 20
34 30 17 11 12 13 11 11 11 13 14 13 10 8 10 13 15 16 18 20 21 22 24 23 23 22 19 19 19 21 23 24 23 23 23 19 21 21 21 23 23 23 23
24 18 16 10 10 12 11 10 13 13 12 11 9 11 14 15 17 19 21 22 23 26 25 23 22 22 21 20 22 24 24 25 26 28 28 25 25 25 25 27 29 28 27
19 9 8 11 13 12 10 13 12 10 9 9 11 13 16 18 20 22 22 24 24 24 24 25 23 24 25 26 27 27 28 26 28 29 31 30 30 30 30 32 31 32 31
12 13 8 12 14 11 12 12 9 8 10 11 13 15 19 21 22 25 25 25 26 24 25 25 26 27 29 31 33 32 31 29 29 31 31 32 32 32 33 33 34 32 33
10 6 11 14 12 11 11 10 10 11 12 14 16 18 21 23 25 27 28 29 29 26 26 28 28 29 32 35 37 37 37 35 32 31 32 33 30 30 30 31 32 32 32
12 12 11 11 9 10 11 12 12 13 14 15 17 20 24 27 29 28 30 30 31 27 26 32 31 34 37 39 37 38 38 38 35 34 33 34 31 29 28 29 30 31 32
12 10 9 8 9 11 12 12 12 13 16 17 21 24 28 30 31 30 31 33 30 27 32 34 38 40 39 40 39 38 37 37 36 36 35 34 35 32 30 29 29 31 32
6 6 6 9 10 11 11 12 14 17 18 22 27 29 30 31 29 31 27 29 28 25 31 36 41 42 41 40 39 38 36 36 36 36 39 33 33 34 32 32 32 33 33
5 6 9 10 10 10 12 16 18 20 23 27 28 31 34 34 32 29 32 27 28 32 36 40 42 45 45 43 41 39 37 37 37 37 39 38 36 36 37 36 37 37 38
6 7 8 9 11 13 16 19 22 23 26 30 35 38 39 26 27 39 42 39 39 39 43 44 45 46 43 40 39 38 37 36 37 38 40 43 40 42 44 44 44 45 45
7 9 12 14 15 16 19 23 25 28 32 36 39 32 29 33 35 36 41 38 39 40 43 42 43 42 40 38 36 36 38 40 41 43 44 46 48 49 51 52 52 53 53
10 12 12 17 20 22 24 26 33 38 39 42 25 36 32 32 35 37 41 42 45 47 44 40 39 39 37 37 39 42 43 45 47 49 52 52 53 56 58 59 58 61 62
14 15 17 19 22 21 25 29 36 33 27 30 39 40 40 33 34 40 44 45 43 42 39 36 38 39 41 44 46 48 50 52 53 54 57 59 60 62 62 66 67 68 70
17 18 22 24 25 25 29 33 34 37 39 36 39 43 42 39 43 48 49 47 42 41 39 39 42 45 48 50 51 52 52 55 58 61 64 67 68 69 70 71 73 76 78
18 20 23 26 28 30 32 35 37 38 37 39 43 45 43 48 53 51 48 45 43 43 44 47 51 53 52 52 53 55 57 60 65 69 72 74 75 78 80 82 83 85 86
19 23 26 28 31 33 34 36 38 40 42 45 47 48 53 52 49 49 50 49 48 48 50 52 54 55 55 58 61 64 67 69 73 78 81 84 86 86 86 89 91 93 95
22 24 26 28 30 30 32 35 37 38 40 44 48 53 52 52 52 52 51 50 52 54 56 58 59 61 62 65 69 72 75 78 81 85 86 88 90 93 96 98 98 99 99
24 26 27 27 26 26 28 30 32 35 39 41 44 47 50 52 54 54 55 57 59 60 62 63 65 67 69 72 75 80 84 88 90 92 94 97 98 100 101 101 100 98 93
23 20 20 20 21 24 28 30 32 36 39 42 45 49 51 55 56 56 57 59 61 62 64 65 68 71 74 79 83 88 92 96 99 101 102 104 106 101 91 87 77 74 72
15 16 19 21 24 27 30 33 36 40 44 46 49 52 54 56 58 60 61 62 62 64 66 69 73 77 82 87 92 96 97 99 99 101 102 98 90 73 65 61 59 58 58

GFSSE_500_spd_048.txt.gz
Wind_Speed
33 31 31 33 32 31 32 32 29 28 22 19 14 7 13 10 8 5 3 1 2 4 5 7 9 10 12 13 14 15 15 16 16 16 15 13 13 14 14 13 14 14 14
31 36 37 35 35 33 34 33 31 25 19 16 9 14 14 10 8 5 2 1 4 5 7 9 10 11 12 13 14 15 17 17 18 19 19 19 17 17 16 17 15 14 15
29 35 39 36 38 35 35 35 22 20 17 12 11 16 14 10 7 4 2 5 7 9 10 12 13 14 14 13 13 15 16 17 19 20 19 20 17 21 20 20 19 18 17
47 44 39 40 39 38 39 23 16 17 15 12 14 17 13 10 6 3 6 8 10 12 14 15 15 15 15 13 13 14 15 17 18 19 21 20 18 21 19 21 22 21 20
50 45 42 45 41 43 34 17 17 15 13 13 16 16 12 7 6 7 9 10 13 15 16 17 17 17 16 14 13 13 15 17 17 18 18 19 17 20 20 19 20 21 20
51 49 49 41 38 31 16 16 13 13 12 15 17 15 11 8 8 9 12 13 15 17 17 20 22 20 18 15 15 15 18 19 21 22 14 21 18 18 18 19 19 20 19
38 43 38 44 37 17 14 12 13 10 13 16 15 11 9 10 11 13 15 16 19 20 21 22 22 19 18 17 18 18 20 22 22 25 19 23 21 20 21 22 22 22 23
29 40 44 36 26 10 8 9 9 10 12 13 12 10 12 13 14 17 18 20 23 24 25 24 21 21 19 18 20 23 24 26 28 29 20 26 24 25 25 27 27 28 28
38 42 29 24 18 13 5 7 8 11 11 11 12 12 14 15 17 19 20 23 25 27 27 27 26 23 21 22 23 25 28 29 29 31 30 29 27 28 30 31 31 31 32
25 29 23 20 15 12 9 8 9 11 10 12 13 14 14 18 19 21 23 26 29 28 31 31 28 25 26 27 31 36 34 33 34 35 30 31 30 30 31 32 33 33 32
24 17 5 5 7 2 5 7 11 12 10 10 13 15 17 19 21 25 26 27 30 31 31 31 30 30 28 30 33 38 39 39 39 38 35 32 30 31 32 32 32 32 32
24 10 7 4 3 5 7 9 9 7 10 13 15 16 19 24 25 27 27 27 29 27 24 24 24 30 32 37 37 37 38 40 42 41 37 34 37 33 33 32 30 31 31
2 0 2 5 5 7 7 9 9 10 12 14 16 20 25 28 28 27 29 30 24 29 33 30 34 31 34 37 40 42 41 40 42 41 40 35 34 37 34 34 32 31 31
6 6 7 6 6 7 8 9 11 12 15 17 21 24 26 27 30 33 31 27 23 40 39 40 42 43 38 40 43 43 43 40 41 40 41 35 35 36 37 37 35 33 33
4 3 3 5 7 9 9 11 13 17 20 20 23 25 26 31 31 27 19 26 31 34 38 36 37 39 42 45 44 44 42 41 38 37 37 34 36 37 36 38 38 38 39
4 5 6 7 7 7 11 15 17 19 23 25 32 35 35 21 25 30 25 38 36 31 35 39 39 44 44 45 44 43 39 37 36 37 37 40 40 41 41 41 43 43 46
6 7 6 7 9 11 15 17 19 20 28 28 32 30 31 30 38 29 26 30 33 40 45 44 42 43 43 42 40 39 39 38 39 40 42 46 47 46 48 48 47 48 51
5 7 9 11 12 15 18 19 24 24 25 32 33 39 28 34 37 37 34 37 45 47 47 43 42 43 42 40 39 40 41 43 46 49 50 53 57 57 56 56 56 54 56
7 9 11 13 17 16 19 24 28 29 31 35 38 36 36 34 39 41 43 48 47 45 44 40 40 40 39 41 43 44 46 48 50 53 55 57 59 60 61 61 60 61 63
10 14 16 17 21 22 25 27 31 32 33 33 33 37 36 36 38 40 41 41 42 44 43 41 40 42 44 46 47 48 51 53 54 55 59 61 62 64 66 69 71 73 74
14 16 19 21 23 25 28 28 29 29 30 32 33 33 34 36 38 40 43 45 45 47 48 47 48 49 49 51 52 53 54 56 58 60 63 67 70 72 74 76 79 81 82
15 16 20 23 26 26 27 25 25 25 27 30 33 36 39 42 43 45 47 49 50 50 52 53 53 53 54 54 56 57 58 58 61 66 70 74 77 80 83 85 87 89 91
22 21 23 24 24 23 21 21 24 27 30 32 35 39 42 45 46 47 48 49 51 53 54 55 55 55 54 56 59 62 63 65 68 73 78 82 85 87 90 92 96 99 101
25 25 25 22 21 20 21 24 28 31 34 37 39 40 43 46 48 50 52 53 54 56 57 58 57 57 60 62 65 69 73 77 81 81 84 87 90 96 98 96 94 93 91
24 23 18 18 19 22 25 28 33 35 38 41 45 47 50 51 51 52 52 53 55 57 58 59 59 60 64 68 72 76 80 84 88 90 89 96 100 98 92 88 84 76 69
19 16 17 19 20 24 28 32 35 38 41 44 46 49 51 53 56 58 60 60 61 62 63 63 64 67 70 74 79 83 87 91 93 98 102 101 94 83 75 69 62 57 56

GFSSE_500_spd_051.txt.gz
Wind_Speed
38 49 36 38 36 35 34 35 34 33 32 31 25 16 10 14 14 12 10 8 5 2 2 4 5 8 9 10 11 12 12 13 14 15 15 14 13 14 13 13 14 13 13
40 42 43 41 37 35 37 37 35 35 33 32 21 13 14 16 14 12 10 7 4 4 5 6 8 10 11 11 10 10 11 11 12 12 15 16 15 15 15 14 16 17 16
39 33 27 32 33 35 35 37 36 33 33 24 19 14 20 18 16 12 9 5 6 6 7 10 11 12 12 13 13 13 13 12 12 12 14 14 16 16 17 16 16 17 18
39 42 39 34 39 37 35 35 33 33 25 23 16 17 22 20 16 11 7 7 8 9 9 10 10 12 14 15 15 13 14 14 14 13 15 14 13 14 15 17 15 17 18
43 41 43 48 47 43 39 37 37 37 22 18 16 20 24 19 12 8 9 9 10 11 12 13 14 16 16 15 13 13 15 16 16 16 17 17 18 16 15 16 17 17 18
48 50 47 48 50 44 44 40 39 20 19 15 17 21 19 13 10 11 11 12 13 13 16 18 19 18 17 15 15 15 17 17 19 19 21 23 19 20 19 18 19 19 19
44 42 35 40 52 42 40 37 26 16 14 14 16 17 14 13 13 12 13 15 15 16 18 19 20 21 19 18 18 17 19 19 24 23 21 24 24 24 23 24 23 24 24
36 25 30 38 43 45 40 29 19 13 12 13 15 15 14 13 13 15 17 18 17 20 22 23 23 23 22 20 19 19 20 24 27 25 23 27 25 26 25 26 28 29 29
36 32 34 38 42 35 24 16 9 10 12 14 14 12 11 13 16 18 20 19 23 23 24 25 25 24 23 23 24 24 28 29 31 30 29 30 29 28 28 27 27 29 30
30 30 25 38 33 19 14 17 15 13 10 8 9 9 13 17 21 19 21 22 25 24 24 25 23 22 24 21 25 32 32 34 38 38 37 34 34 32 30 29 30 28 29
27 21 20 15 11 8 7 8 11 11 7 8 9 14 18 18 18 20 24 26 25 24 18 16 24 22 25 25 25 25 31 34 38 40 37 37 36 37 31 31 31 29 29
33 23 7 9 11 10 9 9 9 9 11 13 15 15 17 18 20 24 24 24 25 26 24 19 28 33 33 37 37 33 32 33 37 41 41 40 37 38 36 32 31 30 29
11 15 19 18 14 10 10 8 8 9 10 10 11 15 20 21 24 24 26 23 18 17 22 28 33 31 29 32 35 36 40 41 39 40 41 38 37 35 34 33 33 33 32
3 14 14 12 10 9 7 5 4 6 8 11 14 15 18 24 30 24 16 18 15 26 27 34 34 32 33 36 37 40 41 42 40 40 38 35 35 35 33 33 36 37 34
14 13 12 11 8 4 3 1 4 7 9 12 12 16 15 17 18 21 23 26 24 24 23 31 36 39 40 39 38 38 39 41 40 39 38 35 36 35 34 33 36 39 39
9 7 5 4 4 3 2 5 7 9 10 13 16 20 20 23 28 29 30 28 28 27 31 38 38 36 37 38 38 38 39 39 39 39 39 39 39 39 38 41 41 42 45
5 3 2 1 2 4 6 9 8 12 16 18 21 25 27 28 28 28 29 30 29 33 34 35 37 37 38 38 38 40 40 39 41 42 42 43 45 46 45 47 48 49 50
2 0 1 4 5 6 9 10 13 18 20 23 25 26 27 27 28 31 31 28 31 31 33 36 37 38 39 39 39 40 40 40 43 45 47 49 51 53 55 56 57 57 57
2 2 3 7 7 9 11 16 21 24 26 27 24 24 25 25 26 28 29 30 31 34 36 38 40 41 42 42 42 42 41 43 45 46 47 50 52 54 55 57 58 59 60
4 6 10 13 15 17 18 19 20 22 22 21 22 22 24 25 26 29 32 34 36 38 41 42 45 47 47 47 47 45 44 45 47 48 49 51 54 57 59 61 63 66 69
9 11 12 16 17 20 18 18 20 19 19 21 25 26 29 31 33 36 38 39 40 42 45 48 48 49 50 49 48 46 45 44 45 48 51 54 58 63 67 71 73 75 77
9 16 16 20 22 18 17 14 15 17 21 24 27 29 33 36 38 41 43 44 45 48 50 51 51 51 53 53 52 49 46 46 50 54 58 63 69 72 75 78 80 82 84
17 19 18 20 19 14 14 15 19 21 24 27 30 32 36 39 42 45 47 47 49 50 52 53 53 54 55 55 54 53 54 56 58 61 65 69 75 78 80 84 87 90 91
23 19 20 15 12 13 16 19 23 25 28 31 35 37 41 44 46 48 49 49 50 52 54 54 54 55 57 55 55 58 62 66 71 73 77 80 84 85 87 93 97 95 86
23 17 12 13 14 18 20 24 28 31 34 37 40 43 45 49 51 52 53 51 51 52 53 54 54 57 56 57 60 64 69 74 78 81 83 87 89 91 94 93 91 83 76
19 17 15 17 19 24 27 30 34 37 42 45 48 50 53 55 56 57 58 58 58 59 61 62 62 61 60 63 67 70 76 80 83 88 92 93 94 98 100 92 76 69 63

GFSSE_500_spd_054.txt.gz
Wind_Speed
28 32 34 39 40 43 41 39 33 33 34 28 28 29 25 18 14 14 13 9 8 7 8 9 9 9 9 9 10 11 11 12 13 14 16 15 15 17 17 18 17 18 17
29 36 42 39 42 51 49 40 35 36 34 28 25 29 20 16 17 15 12 11 10 9 10 10 10 11 11 10 9 11 11 11 13 13 14 14 15 15 16 17 18 20 19
37 40 37 40 39 30 35 39 35 35 35 32 25 24 18 18 19 16 14 12 11 11 11 12 12 12 12 11 10 10 11 11 12 14 13 13 14 16 15 17 19 20 20
40 41 42 40 36 32 34 33 34 34 35 28 27 23 19 20 20 17 14 12 12 12 13 14 14 14 15 16 16 15 13 10 11 14 14 15 15 16 17 16 18 19 20
41 44 44 43 37 39 37 38 34 39 38 31 27 23 20 22 20 17 14 14 12 14 15 15 16 17 17 17 16 15 16 15 13 13 17 17 18 18 19 21 20 18 19
42 44 44 42 38 42 45 41 38 40 42 32 21 22 21 21 18 15 15 13 14 15 15 17 17 17 18 18 18 17 18 18 17 18 22 20 20 21 22 22 24 24 22
39 42 39 45 36 50 47 47 41 38 31 26 17 17 19 21 18 15 15 16 16 17 17 19 21 20 20 18 19 18 18 17 17 20 21 24 23 24 25 24 25 26 27
35 48 44 39 50 48 46 42 41 32 17 11 12 14 18 18 17 14 16 17 19 19 22 23 22 22 21 20 20 22 23 23 25 29 30 32 34 32 29 29 27 25 27
23 20 28 30 23 43 46 39 31 21 18 11 10 16 14 18 14 15 16 20 22 22 24 24 18 19 15 16 17 21 24 23 23 26 28 29 32 34 36 33 29 27 26
33 27 34 36 41 44 41 27 15 15 13 11 13 14 11 9 12 15 20 23 22 23 23 23 23 15 20 26 26 31 30 30 31 30 32 32 32 35 38 36 35 31 29
33 25 30 32 25 31 23 21 21 19 18 11 12 13 15 15 17 17 20 20 20 23 25 25 22 21 25 26 26 27 31 34 35 37 38 39 38 37 38 37 34 32 32
28 26 23 31 14 6 19 18 15 16 13 13 15 17 16 13 14 19 21 22 23 23 20 18 18 24 28 32 33 32 33 35 36 39 42 41 40 40 39 36 32 31 31
21 25 28 15 14 20 15 13 13 11 10 13 14 10 11 12 14 19 20 13 15 15 17 22 22 25 30 33 37 38 37 37 40 42 41 41 41 38 37 33 32 31 28
32 17 17 22 21 17 15 13 11 11 11 10 8 10 9 15 12 18 15 19 21 22 23 25 23 26 29 32 34 37 36 35 36 38 39 41 39 38 37 32 31 31 32
13 20 21 20 16 14 10 8 6 3 5 7 10 10 11 12 17 20 23 22 21 25 24 25 26 29 30 33 35 37 37 39 38 37 36 37 38 39 38 35 36 35 36
15 14 17 15 12 9 7 4 3 6 9 10 11 10 17 19 21 22 23 22 24 26 23 26 28 31 33 35 37 39 40 41 41 41 40 40 40 41 41 41 41 42 43
10 9 11 9 8 6 5 5 7 6 10 14 14 19 21 21 22 21 22 20 22 26 28 28 30 33 34 35 37 39 40 41 41 42 43 44 46 47 47 47 48 49 49
6 7 7 8 6 5 5 4 6 11 15 18 21 21 20 19 18 18 20 23 24 28 30 31 32 34 36 38 39 41 43 45 45 43 41 41 44 46 48 49 50 52 53
7 2 2 2 3 5 6 9 11 16 17 19 19 16 16 17 18 20 23 26 30 32 33 34 35 37 39 42 43 44 44 45 47 47 44 43 42 43 44 45 47 49 51
3 2 3 5 6 7 10 14 16 16 18 17 14 16 18 20 23 26 29 31 34 36 37 38 40 42 44 47 47 47 47 48 49 47 44 43 44 47 50 52 55 57 60
4 4 7 9 10 13 14 13 14 15 12 15 17 19 23 26 28 31 34 37 40 42 43 44 45 48 50 50 50 50 50 51 51 48 46 49 52 55 59 63 67 69 71
8 10 11 14 14 14 14 12 12 12 16 19 22 25 28 31 34 36 39 42 43 46 48 50 51 52 53 53 54 54 53 52 49 49 51 54 58 63 67 69 72 76 79
7 11 14 14 14 13 11 12 15 16 20 24 27 30 33 37 40 43 45 47 49 51 53 54 54 54 55 55 56 58 58 58 53 52 56 60 64 67 70 72 76 79 82
8 11 12 11 11 12 14 16 19 22 25 29 32 35 38 42 45 46 48 50 51 51 53 55 55 55 56 57 58 58 59 56 57 60 63 67 70 73 74 78 81 85 87
10 9 8 9 11 12 17 21 24 27 30 34 37 40 44 46 48 48 49 51 53 55 55 54 53 56 61 64 63 63 59 59 63 67 69 73 78 82 86 90 89 90 94
9 8 8 10 14 19 22 26 29 32 36 39 41 44 46 48 50 52 53 54 55 56 58 56 57 65 67 70 68 65 62 66 69 73 76 78 81 86 90 90 92 94 91

GFSSE_500_spd_057.txt.gz
Wind_Speed
31 28 26 28 32 33 35 40 41 44 43 36 35 34 31 27 21 14 12 11 11 12 13 13 13 12 12 13 14 14 14 15 15 15 14 13 14 15 16 17 18 21 21
26 28 26 28 31 35 35 40 43 40 35 36 34 32 30 26 19 16 12 12 10 11 13 14 14 14 15 16 15 14 15 15 15 14 15 15 16 14 14 16 17 19 20
27 26 29 33 34 36 35 34 39 26 30 35 34 31 27 21 16 16 14 13 11 13 14 15 16 15 16 17 16 17 17 17 17 16 15 14 15 16 16 16 16 18 20
32 30 33 36 37 37 33 32 28 37 30 32 34 28 25 18 16 17 15 13 13 14 15 16 17 17 17 17 18 16 16 17 18 18 18 16 15 16 17 18 20 21 20
32 31 34 39 41 36 35 34 30 31 34 34 33 26 24 16 15 16 14 16 16 15 16 17 17 17 17 19 20 18 15 17 20 21 19 18 18 17 18 19 20 21 23
32 37 40 41 40 34 37 34 32 37 37 34 31 28 21 15 15 16 16 17 17 17 17 18 20 19 20 20 19 19 17 16 18 22 22 20 18 18 21 23 24 25 24
35 36 41 34 35 34 45 33 39 43 39 33 30 25 8 11 14 17 19 17 18 18 19 20 22 25 26 25 23 21 19 19 19 22 23 26 27 28 28 29 30 34 32
32 34 35 24 40 34 48 40 41 49 38 29 15 6 9 13 17 19 16 18 18 19 18 22 24 25 25 22 20 16 14 17 19 23 26 27 28 27 29 31 30 30 33
30 29 32 42 43 41 32 47 48 43 30 10 10 14 12 14 15 19 18 16 15 19 23 24 25 24 23 24 21 21 24 24 25 26 28 30 30 35 37 36 35 33 34
30 34 34 27 24 31 34 42 45 34 17 13 10 11 13 13 18 16 12 17 22 22 25 25 24 21 22 21 23 29 31 34 33 34 38 36 36 37 39 40 38 36 35
30 31 26 29 34 42 40 36 35 24 18 14 14 14 12 13 10 10 18 22 22 26 26 23 20 19 19 20 27 31 33 37 41 44 46 45 42 42 43 43 42 36 36
28 17 28 22 28 25 26 36 25 24 21 17 16 12 11 12 14 19 20 25 22 19 15 18 20 20 26 26 29 31 34 34 35 37 40 41 41 41 40 39 36 35 33
21 24 27 25 23 21 19 22 23 19 13 12 11 10 11 16 18 19 18 14 14 19 21 20 27 30 30 29 29 29 32 33 35 37 40 41 42 42 40 38 35 32 33
24 23 22 21 24 15 22 18 16 14 13 10 11 13 15 13 13 15 19 20 21 22 25 26 27 29 28 26 28 29 33 35 37 39 40 40 40 41 40 39 38 35 32
26 28 24 19 19 19 17 15 11 9 7 7 7 11 13 16 17 20 21 22 23 24 23 22 24 28 30 31 34 37 39 40 40 40 39 40 41 41 41 41 40 39 37
18 15 19 16 17 15 14 12 11 10 9 8 8 12 11 14 20 24 22 20 20 19 23 26 27 31 33 35 36 38 39 40 41 42 42 41 40 41 42 43 43 43 44
12 12 13 16 15 12 14 10 6 5 4 9 12 14 16 20 20 18 17 19 20 23 27 29 30 33 35 37 38 40 42 44 44 45 45 44 43 44 45 44 44 46 47
13 7 8 11 10 9 9 6 7 3 9 12 13 15 17 13 14 15 18 21 24 27 29 32 34 36 38 40 42 44 46 47 48 48 48 47 47 48 46 45 45 43 42
13 12 12 10 7 7 4 4 5 9 13 14 15 14 12 15 16 19 21 25 28 30 34 37 40 41 43 44 46 46 48 48 49 49 49 49 50 50 48 46 45 46 47
11 8 8 3 2 1 4 7 10 13 14 14 11 13 17 18 20 23 26 29 33 36 39 42 44 45 46 47 48 48 49 49 50 50 51 52 53 51 48 48 50 51 53
5 5 2 1 4 6 8 10 12 12 11 11 14 18 20 23 26 29 32 35 38 40 43 45 47 48 48 49 51 51 51 49 49 52 53 55 54 51 51 53 55 58 61
3 3 3 5 6 9 8 10 10 10 11 15 17 21 25 28 32 34 37 40 42 44 47 49 50 51 52 55 54 52 51 52 56 58 59 57 53 53 56 59 62 65 67
5 6 6 7 9 9 8 8 9 12 15 19 22 27 30 34 37 39 42 44 46 48 50 52 54 54 54 55 54 56 58 59 62 63 59 57 55 58 62 65 68 70 72
7 11 12 11 9 8 8 11 14 17 20 25 28 32 35 38 41 44 47 48 50 50 49 51 54 56 59 58 59 59 61 65 66 62 62 58 60 65 69 72 76 78 80
8 11 10 10 9 10 13 15 17 23 26 30 33 36 38 43 45 47 48 49 51 49 46 53 54 58 63 61 61 61 64 66 67 68 63 61 64 71 77 79 81 82 84
10 9 8 9 10 13 16 19 23 27 31 35 38 40 44 46 48 48 45 47 51 47 50 57 62 64 65 63 63 67 67 66 69 71 69 70 75 76 80 83 85 85 86

GFSSE_500_spd_060.txt.gz
Wind_Speed
33 31 28 25 24 27 26 29 28 29 30 35 34 32 27 24 23 17 11 10 8 9 9 10 12 13 14 14 14 14 15 15 15 15 15 15 14 14 15 15 15 16 17
30 29 31 29 28 27 29 30 28 25 26 33 30 26 25 24 20 12 10 10 8 9 10 12 13 14 15 16 16 17 18 17 17 18 18 18 18 16 14 14 14 15 15
30 30 25 25 25 29 32 32 30 28 23 28 29 27 25 23 18 10 10 9 9 9 11 13 15 15 15 14 15 16 17 18 18 19 19 18 20 18 15 14 15 15 16
28 26 25 27 30 30 32 33 34 32 25 26 31 31 27 23 17 10 10 9 10 12 13 15 16 17 16 16 18 17 18 20 20 20 20 21 20 17 15 15 16 17 19
29 30 30 34 32 32 33 33 35 32 29 25 32 31 29 24 12 11 10 12 10 15 15 17 17 19 19 20 20 20 19 20 22 21 22 22 22 23 21 20 19 20 20
25 27 30 32 36 37 36 37 35 35 32 26 35 34 31 23 11 14 12 11 15 16 17 18 19 19 21 23 23 22 21 22 22 22 22 24 24 24 26 27 26 25 26
28 31 30 29 33 32 35 42 34 35 34 34 38 35 33 22 17 13 13 15 16 17 18 18 18 22 24 25 25 20 16 17 17 19 22 24 27 28 30 32 32 33 32
27 29 28 26 28 29 37 47 35 44 44 39 39 32 19 10 8 12 16 15 16 17 17 17 21 25 27 25 24 22 18 16 19 21 23 23 26 29 31 31 32 34 35
27 20 27 31 27 25 33 46 51 36 46 40 30 20 11 9 13 15 14 12 13 16 18 22 26 26 28 27 26 21 22 23 24 27 27 28 33 36 36 36 38 39 41
29 27 29 35 28 16 37 32 39 38 39 38 22 14 15 11 13 12 9 10 15 17 22 27 29 31 31 26 22 20 23 27 27 29 30 30 31 32 34 36 38 40 40
32 31 32 34 35 29 32 45 39 42 36 27 18 13 11 10 10 9 13 14 15 20 27 29 31 27 22 21 22 25 29 27 30 33 33 33 35 37 38 38 37 38 39
27 25 27 38 29 35 29 38 35 32 21 15 14 12 10 11 12 10 12 16 20 26 29 23 22 24 23 27 30 33 30 28 30 33 37 39 40 41 41 41 40 39 39
26 29 19 26 33 38 33 30 31 30 22 18 16 15 10 12 12 14 18 22 21 18 21 23 24 26 26 24 24 28 29 30 32 35 38 39 40 41 40 41 42 41 41
22 24 15 28 19 26 32 28 18 20 18 16 13 8 12 16 19 17 14 15 23 22 24 22 21 20 23 26 28 30 33 34 36 39 39 39 40 41 41 41 42 41 41
17 19 26 15 21 22 19 22 18 16 15 11 11 12 14 16 17 18 18 20 22 21 19 19 21 25 28 30 31 32 35 37 40 41 42 43 43 43 42 41 41 40 40
24 23 18 18 18 18 13 15 12 13 14 12 10 11 9 12 14 16 20 17 16 17 20 23 27 28 30 32 35 36 38 41 42 44 45 46 46 45 44 43 43 42 41
21 23 18 17 14 14 13 13 11 7 7 9 11 11 11 14 15 15 12 14 17 21 23 26 29 32 35 37 40 41 43 44 45 45 46 47 47 46 46 44 44 43 44
14 13 13 16 16 12 12 13 13 13 11 9 10 11 12 11 9 12 14 17 21 24 26 30 35 38 40 42 43 45 47 48 48 49 49 49 48 46 45 46 45 47 47
14 15 15 16 15 15 14 10 10 10 10 10 13 11 10 10 12 15 17 21 24 28 33 37 40 41 44 45 47 48 49 49 50 51 51 51 48 46 47 48 50 52 50
12 11 12 11 11 11 10 9 8 10 10 11 11 9 11 14 17 19 21 26 30 34 38 41 43 45 45 46 48 48 49 50 52 53 53 53 54 54 54 55 54 53 51
10 10 10 9 10 11 10 9 9 10 10 9 10 14 15 17 21 24 26 31 35 39 43 45 46 47 48 48 48 51 51 52 53 52 52 54 55 57 58 57 57 55 53
11 10 9 8 8 9 9 10 9 9 9 11 14 18 18 22 26 29 32 35 39 44 46 46 48 51 51 48 48 51 54 56 56 57 57 58 60 61 61 62 62 60 59
10 10 10 10 11 11 10 11 9 8 11 15 18 21 24 27 30 34 36 39 43 46 48 48 49 54 52 50 51 56 60 61 60 61 63 64 65 64 64 65 65 65 67
11 12 13 13 14 13 12 12 11 13 15 17 22 25 29 31 35 38 40 42 44 46 49 49 52 48 49 55 61 64 67 71 66 66 68 68 66 67 70 71 71 72 73
12 14 15 14 14 13 13 14 14 17 19 22 26 30 33 36 40 42 43 45 46 48 46 48 52 50 59 63 66 69 73 73 72 74 70 71 71 73 74 76 77 79 81
16 16 16 13 13 12 12 14 19 20 22 26 31 35 38 42 45 45 48 48 46 49 43 40 55 65 61 62 69 72 73 76 75 75 75 76 78 79 82 85 87 87 87

GFSSE_500_spd_063.txt.gz
Wind_Speed
31 30 27 24 24 25 26 25 25 24 23 22 23 23 18 13 14 14 11 3 5 6 8 9 10 11 12 14 14 14 14 14 14 14 14 15 15 16 17 17 15 13 12
31 30 29 28 28 28 29 29 26 25 23 20 22 21 18 14 15 13 8 6 7 7 9 9 10 12 13 14 15 15 15 15 15 15 15 14 15 18 19 18 15 15 13
33 30 28 28 30 30 27 28 27 28 27 23 23 22 21 18 16 16 8 8 9 10 9 10 10 12 14 13 14 15 16 17 18 19 18 18 17 19 20 19 17 14 13
34 32 29 28 26 27 25 25 26 28 29 28 24 25 21 20 20 17 12 12 12 11 10 11 11 12 14 14 16 18 20 20 20 20 20 19 19 20 21 22 21 20 20
31 31 29 29 28 30 30 28 28 30 31 30 25 26 23 24 24 16 15 14 13 13 13 12 11 14 16 15 17 20 22 23 20 19 16 17 18 20 21 23 25 26 26
20 27 31 32 33 32 31 30 34 35 33 28 29 25 28 29 27 17 16 16 16 14 14 13 12 15 17 19 21 22 22 21 17 16 17 16 18 20 22 24 26 28 30
17 20 23 28 29 27 27 28 31 34 32 29 29 35 30 33 31 20 15 20 18 16 15 10 14 15 18 21 22 25 24 20 17 17 18 20 22 22 23 24 25 28 30
20 24 23 25 28 27 24 27 33 30 30 33 34 34 33 36 25 16 20 19 17 16 13 13 14 18 22 24 26 29 24 19 18 21 22 23 25 26 29 31 32 32 33
22 25 23 25 26 25 28 26 30 30 33 38 38 42 35 23 19 19 12 17 16 11 12 13 16 20 23 23 28 23 20 17 19 23 23 24 27 27 29 30 31 31 31
26 20 28 43 27 43 32 25 29 45 39 40 40 35 28 17 20 14 16 16 10 10 13 18 23 24 25 29 22 20 22 22 28 27 29 26 26 28 31 33 33 33 35
29 27 28 31 33 30 45 30 38 41 31 40 41 38 21 19 10 13 12 8 10 12 16 21 25 27 22 22 24 23 24 24 23 25 30 33 33 35 35 35 34 34 35
35 30 29 38 31 35 43 33 25 31 37 37 31 26 20 16 12 9 10 10 14 19 20 22 24 21 22 22 21 19 21 25 29 31 33 33 34 36 37 37 39 40 40
28 27 27 34 37 39 39 38 34 35 35 32 24 20 17 16 9 7 10 15 19 21 23 21 22 18 15 15 21 25 27 28 29 32 34 36 37 38 39 39 40 41 42
32 23 28 36 21 28 28 36 32 32 31 29 23 18 14 12 14 14 17 17 19 18 24 21 14 14 18 22 25 26 28 31 34 35 36 38 40 40 41 41 41 42 41
20 27 18 25 20 20 17 23 26 18 18 20 17 14 12 12 13 18 17 19 20 20 15 13 16 18 21 24 27 30 33 34 37 39 40 41 42 43 43 43 43 43 43
16 20 20 19 23 28 29 17 22 21 18 14 11 11 12 11 14 14 15 17 14 13 15 17 20 21 23 27 31 34 36 38 40 42 43 43 44 45 45 45 44 44 44
22 19 16 19 19 20 17 15 12 11 11 12 13 13 11 11 11 12 13 10 12 16 19 21 23 26 28 32 36 38 40 42 43 44 44 45 46 46 47 47 47 47 46
14 18 19 18 16 14 13 12 11 11 12 12 9 8 10 10 12 12 12 14 17 18 23 25 28 32 34 37 40 42 44 45 47 47 48 47 48 49 49 49 49 49 50
15 13 15 16 16 14 12 11 13 13 12 11 11 12 14 12 12 13 14 18 20 22 28 29 33 36 39 41 43 45 47 48 46 44 44 47 49 50 50 50 50 51 52
11 9 8 11 12 13 13 12 11 12 12 13 13 14 13 12 15 15 18 21 24 28 32 33 36 39 41 43 45 46 49 48 45 44 45 49 53 55 54 54 55 56 56
13 13 14 13 14 15 15 14 14 14 12 12 14 13 13 14 15 19 22 26 28 32 35 37 39 41 46 48 48 48 45 47 51 56 60 62 61 59 61 62 62 59 58
15 15 15 15 15 13 14 15 15 13 13 13 14 13 14 16 19 23 27 29 31 36 39 40 42 44 48 48 46 49 51 54 55 54 58 63 64 63 66 65 63 61 62
15 15 14 13 13 14 15 15 16 16 14 15 15 15 17 20 23 27 30 32 36 38 41 41 46 47 48 48 50 52 58 63 59 58 61 65 66 67 67 66 65 66 67
13 14 15 16 16 15 17 17 17 17 15 16 18 19 22 23 26 30 34 37 40 41 44 43 46 47 50 46 49 57 63 64 60 63 69 68 68 69 70 72 73 75 77
16 16 17 17 16 17 16 19 18 16 18 21 23 24 26 28 32 35 40 43 43 42 43 47 46 50 52 51 54 63 68 65 64 67 67 68 70 74 77 79 80 80 79
18 17 18 16 14 16 16 17 19 20 22 25 23 25 29 33 37 41 42 42 42 45 48 50 53 53 57 54 63 69 69 67 67 68 69 72 75 79 82 83 84 84 85

GFSSE_500_spd_066.txt.gz
Wind_Speed
31 29 27 25 25 24 23 22 23 23 24 21 19 18 17 11 8 8 9 8 5 7 7 7 8 9 12 11 11 13 12 12 12 13 14 15 16 16 17 18 17 16 13
34 32 33 31 28 26 26 26 26 27 27 23 19 16 16 14 11 10 10 10 7 9 9 9 8 10 11 11 9 9 10 11 11 12 14 14 16 16 18 19 16 14 13
37 31 34 31 29 27 26 26 29 29 30 26 20 18 19 16 15 15 12 13 11 12 12 12 10 9 10 10 9 9 10 12 13 13 13 15 15 15 16 18 18 16 15
37 36 35 34 31 28 28 30 31 30 26 25 22 21 23 18 18 19 15 14 16 15 14 13 11 8 10 10 9 12 14 15 16 15 15 14 14 15 17 18 18 18 19
39 35 37 37 34 30 29 28 27 26 25 23 23 24 24 19 20 21 19 17 18 17 15 14 12 10 10 11 12 14 15 16 15 15 13 14 15 15 16 19 20 21 22
37 43 43 37 35 33 30 28 27 24 27 26 25 24 24 21 20 26 24 19 19 19 17 16 13 11 11 11 14 17 19 20 20 17 15 16 16 17 19 20 20 22 22
41 47 41 37 35 34 29 27 25 26 28 26 21 24 22 27 28 27 28 24 24 21 18 16 13 12 11 13 18 20 20 21 19 18 17 19 19 20 23 23 24 25 26
29 20 20 21 23 25 28 28 27 27 28 25 18 19 24 31 31 31 31 24 21 24 19 14 14 11 12 15 17 20 22 20 16 14 18 19 23 25 23 23 25 26 29
16 12 13 14 22 26 26 27 29 28 30 26 23 23 28 33 37 30 27 22 24 22 14 13 11 13 17 18 20 21 17 17 16 18 23 21 22 24 26 27 29 28 29
21 19 14 16 26 27 35 41 29 30 33 30 33 31 33 31 29 31 26 22 16 15 10 11 13 18 19 22 21 18 18 18 18 17 18 23 24 26 28 29 31 32 32
23 20 22 24 33 32 20 32 34 28 35 39 40 33 31 35 32 27 26 21 13 12 11 13 18 20 18 19 19 18 15 13 17 21 22 24 25 28 30 32 34 36 37
25 26 27 26 30 31 33 38 36 41 40 54 33 34 34 31 24 24 15 14 11 11 15 18 17 17 19 19 14 13 16 18 19 22 25 28 30 33 35 36 38 39 41
24 26 29 30 23 27 36 32 37 42 29 35 36 32 30 27 25 18 15 13 15 15 15 17 19 20 12 11 14 16 18 20 24 27 28 30 33 35 36 38 39 40 41
29 30 27 27 29 32 33 37 38 25 32 33 28 24 21 20 17 12 14 15 14 14 13 17 17 13 12 15 18 19 22 25 28 31 33 34 37 39 40 41 41 41 41
29 35 33 26 27 33 24 30 19 25 27 25 23 20 17 13 12 14 14 15 17 14 17 13 11 13 16 18 21 25 27 31 33 36 37 38 40 42 42 43 42 42 42
23 28 25 18 21 21 25 29 35 25 10 19 23 20 17 14 13 13 16 17 14 17 13 12 14 16 19 22 26 29 33 35 37 39 40 42 43 44 44 42 42 42 43
17 18 17 19 29 20 24 32 15 22 21 16 13 12 13 13 12 12 16 17 14 12 13 14 17 20 24 26 30 32 36 38 39 40 42 44 43 42 42 43 43 45 45
23 24 17 16 15 19 17 19 17 14 12 12 14 13 15 14 13 15 17 11 11 13 16 18 21 25 28 31 35 37 39 41 42 42 40 41 45 46 47 48 51 48 47
11 12 15 15 16 17 16 14 13 11 13 14 12 14 14 13 13 14 10 13 14 17 20 23 26 30 33 36 38 39 40 43 44 40 41 42 46 50 53 49 51 51 52
12 15 14 13 12 11 11 11 11 10 11 13 15 16 16 14 14 11 13 15 18 22 24 28 31 34 37 39 40 42 44 46 44 45 46 49 51 52 53 54 54 55 55
7 6 8 11 9 10 11 13 15 15 17 17 18 18 17 14 13 13 16 18 22 25 29 32 34 37 39 38 42 43 44 43 44 46 49 53 55 55 55 56 60 59 58
10 10 11 12 13 14 15 15 15 17 19 19 19 18 15 15 15 16 19 22 26 29 33 35 37 38 40 41 42 42 44 47 46 49 54 59 62 61 61 61 61 60 60
14 14 14 15 15 15 15 18 19 20 19 19 18 17 17 18 19 20 23 27 29 33 36 39 38 39 41 43 46 47 48 50 55 58 60 62 62 63 62 63 62 64 66
13 14 16 17 17 18 18 19 21 21 22 22 20 19 21 22 22 24 28 29 32 37 39 38 36 40 43 44 47 50 52 56 61 61 65 66 65 63 64 66 69 71 72
15 16 17 18 19 20 21 20 22 21 22 22 23 22 24 29 28 28 31 33 36 38 38 39 40 41 46 50 53 55 55 59 66 65 66 66 67 68 70 73 74 75 78
20 20 20 20 19 18 20 22 26 26 25 26 26 27 30 29 25 32 38 35 41 38 42 43 42 45 46 54 58 60 58 67 71 72 70 69 70 73 75 77 78 80 82

GFSSE_500_spd_069.txt.gz
Wind_Speed
34 31 26 25 24 23 24 25 25 24 25 25 22 20 18 15 12 9 8 9 8 9 8 9 8 8 8 8 9 8 8 9 9 10 11 11 12 13 14 14 14 16 15
39 36 26 26 26 25 25 26 25 24 25 26 24 20 18 16 15 13 10 10 11 11 11 11 9 8 8 6 7 7 7 8 8 9 10 11 13 13 14 14 15 15 14
36 33 32 30 31 32 31 28 27 26 26 26 24 22 20 18 16 15 14 13 13 15 14 14 12 11 8 7 7 6 8 9 10 11 12 12 12 14 14 15 15 17 17
35 35 35 35 35 34 30 29 28 28 28 26 22 19 20 19 18 17 15 16 18 18 17 17 15 13 10 8 7 7 9 10 11 12 11 12 11 14 14 15 15 16 18
36 38 38 39 40 35 35 33 30 26 24 23 21 20 20 22 19 19 17 19 21 20 21 19 17 13 10 8 9 8 10 10 11 11 10 11 12 12 12 13 14 16 17
36 39 38 37 41 38 36 34 29 25 24 24 22 22 21 20 20 20 19 22 24 24 25 22 17 13 9 10 8 10 14 16 15 15 12 11 12 12 13 18 18 18 18
40 32 36 35 34 37 36 35 31 27 27 26 24 22 20 21 21 22 25 25 26 28 26 23 15 12 10 10 12 15 17 19 18 15 11 9 12 14 17 17 17 19 22
40 38 43 39 42 46 44 39 34 33 30 27 24 22 23 22 22 24 28 30 28 30 29 18 13 11 10 11 16 17 19 17 14 14 14 16 16 16 17 20 20 20 22
38 40 35 35 29 39 39 38 37 35 30 27 26 23 22 23 25 29 31 31 31 30 20 16 13 10 11 15 18 18 16 14 16 15 15 16 16 18 19 21 23 24 25
19 21 10 14 27 33 42 31 29 26 27 29 26 24 24 26 30 27 31 31 32 21 17 14 11 12 14 16 16 16 15 15 13 12 15 19 20 22 22 24 25 27 28
23 19 17 10 17 24 32 47 34 21 28 32 32 31 36 40 29 29 26 27 24 19 17 11 12 13 16 14 15 17 14 10 12 15 16 18 21 23 25 28 31 33 34
20 25 22 21 23 26 28 31 19 21 26 35 40 35 47 41 31 33 27 23 21 14 13 14 14 17 13 17 14 9 10 13 14 16 19 20 23 27 30 33 34 36 38
22 21 24 21 23 29 30 19 27 21 26 31 43 41 39 31 34 26 23 13 11 14 14 13 15 16 17 15 10 13 13 15 17 20 23 26 29 31 33 36 38 39 40
23 23 23 22 25 19 28 29 28 23 25 24 37 43 37 34 24 21 17 18 15 14 14 12 14 15 14 12 14 15 16 21 22 25 29 30 32 34 37 39 40 40 40
27 27 26 21 23 27 37 28 22 21 18 22 29 35 35 26 21 17 15 16 16 16 15 15 15 11 12 14 15 18 22 24 27 29 33 33 37 39 38 37 37 40 41
22 25 24 30 32 39 35 28 27 23 22 26 33 41 24 19 17 16 16 16 17 17 17 15 12 12 15 17 19 22 26 28 31 32 33 37 41 41 38 39 41 44 45
21 17 16 17 18 16 26 23 34 30 30 21 20 21 22 17 13 13 16 17 15 14 13 12 13 15 17 21 24 27 29 32 34 36 39 40 41 39 41 45 46 46 47
16 23 26 18 15 18 25 14 17 14 18 20 19 16 14 12 13 14 15 16 11 11 12 13 16 19 22 25 28 30 33 35 36 39 41 40 40 42 44 45 46 48 48
34 28 22 22 14 9 10 16 21 20 16 13 9 7 10 13 14 16 13 13 13 13 14 16 20 22 26 29 31 33 36 37 39 41 40 38 41 44 48 49 51 51 50
17 12 9 13 14 13 14 14 12 8 6 5 10 14 15 15 16 16 14 14 14 16 18 21 24 26 29 33 35 35 37 38 41 42 41 42 43 45 49 52 54 55 54
11 11 11 13 12 9 6 5 4 6 9 11 14 16 16 17 18 16 15 16 18 20 22 25 27 30 34 36 37 36 39 38 42 44 45 47 50 53 56 57 58 59 60
5 3 2 2 1 1 3 4 6 8 11 15 17 19 20 20 20 18 20 20 22 24 25 28 31 35 38 37 35 38 41 44 44 44 47 51 55 58 63 64 64 64 62
2 3 3 5 6 7 9 11 13 14 17 18 19 21 21 20 20 22 24 24 26 28 27 31 36 38 37 36 38 39 42 43 48 54 58 58 58 64 66 67 68 67 64
6 7 9 10 11 11 13 15 17 20 21 22 22 22 21 21 23 26 28 29 31 32 31 36 38 36 38 41 41 42 43 49 51 57 64 65 65 69 70 69 70 69 69
9 10 11 13 14 16 18 19 21 23 24 25 24 25 23 24 26 28 35 40 34 35 37 41 40 40 43 48 46 45 49 52 55 60 62 64 67 76 77 76 73 72 74
15 15 16 17 17 18 19 20 22 24 26 27 27 28 26 29 31 33 38 32 31 36 37 39 42 43 48 52 50 51 52 54 57 62 67 67 71 75 76 76 76 75 78

GFSSE_500_spd_072.txt.gz
Wind_Speed
33 36 34 32 32 32 28 24 22 21 20 21 21 21 21 16 13 12 10 8 9 10 12 13 14 13 11 10 7 7 8 7 6 6 7 8 8 9 10 11 12 12 12
37 35 37 31 29 28 28 25 24 25 26 25 23 23 22 17 14 14 12 11 11 12 13 14 14 12 10 9 6 5 5 5 6 6 8 8 9 10 12 12 13 13 13
32 35 33 36 27 26 25 25 28 28 27 27 26 24 20 19 16 16 15 15 14 13 14 15 16 14 11 10 8 5 5 5 7 8 10 10 10 10 11 12 12 12 12
26 42 31 39 29 28 29 29 31 32 31 28 27 24 19 18 16 16 17 16 17 17 16 18 17 17 13 13 8 6 6 5 7 7 9 8 9 11 12 12 8 9 10
31 39 41 40 34 35 34 35 35 33 30 27 23 20 19 19 18 18 17 17 18 19 20 20 20 18 16 13 8 8 5 6 8 10 11 11 11 11 9 7 11 12 13
23 33 36 35 34 34 34 34 33 32 28 26 22 21 21 21 18 20 19 20 21 23 23 23 22 19 15 14 10 9 9 11 13 17 16 12 11 9 10 13 14 15 16
27 27 34 34 35 36 34 35 34 30 29 27 26 25 24 21 20 20 20 21 23 23 24 25 23 26 14 13 11 11 11 13 15 14 11 9 9 11 13 13 14 16 19
34 31 32 38 38 38 38 37 36 35 30 29 28 27 25 23 21 20 19 21 26 28 26 27 31 19 14 13 10 12 13 16 12 11 11 10 10 11 13 16 17 18 19
31 32 29 31 38 43 43 39 35 34 34 32 30 29 25 22 20 19 22 23 26 27 26 31 13 12 14 13 12 13 15 14 13 10 11 8 11 13 13 14 17 19 20
14 14 17 33 24 51 43 49 43 39 36 32 26 30 26 22 21 24 22 24 23 27 27 14 15 12 12 12 14 12 12 12 11 9 10 12 13 14 15 16 19 21 23
13 13 16 15 23 33 35 36 39 36 34 29 22 25 29 27 23 30 34 28 28 29 25 16 13 12 11 11 12 14 13 9 7 9 12 13 14 16 18 21 24 27 28
14 13 18 14 12 20 12 28 26 23 31 34 23 25 27 32 29 32 34 27 25 21 16 10 11 13 11 15 13 10 6 9 10 11 13 15 17 19 23 25 30 33 34
20 19 20 19 16 13 24 16 16 16 14 20 21 26 25 38 37 29 29 24 21 13 10 12 12 13 15 14 12 9 10 12 11 14 16 18 19 22 26 30 34 35 35
21 22 18 17 10 23 19 18 21 14 19 21 18 23 31 34 31 31 30 21 14 15 13 13 14 15 15 10 9 12 13 15 14 19 20 21 23 27 31 34 36 36 36
18 18 19 18 15 27 18 18 28 21 21 27 28 22 26 33 35 32 23 17 13 11 13 16 16 16 9 9 12 13 14 17 19 21 24 25 27 30 34 35 34 35 38
14 17 17 17 18 26 22 23 25 26 34 22 19 16 24 36 34 30 19 16 12 13 17 17 17 13 10 12 13 14 16 21 22 24 26 28 30 33 36 33 33 36 38
16 18 15 10 20 17 16 19 36 29 25 18 16 16 20 24 23 17 16 14 15 16 16 16 15 13 14 15 17 18 20 23 25 26 27 30 32 35 34 33 35 38 41
14 14 17 21 13 16 15 15 15 14 22 13 15 16 20 20 16 13 12 13 14 14 15 16 15 15 16 17 19 21 24 27 29 30 31 32 35 34 33 36 41 43 44
17 23 15 19 19 14 13 12 8 5 15 15 19 18 13 11 11 11 10 12 14 15 15 17 17 18 18 20 22 25 27 30 31 32 34 37 37 38 39 43 46 48 50
19 4 9 3 8 7 5 10 13 16 15 13 11 10 9 6 7 9 14 15 14 17 18 18 19 20 22 24 27 28 30 34 34 32 34 35 34 36 42 46 50 52 54
18 15 13 13 13 11 14 11 11 8 5 3 3 3 6 9 12 14 14 16 20 20 20 22 21 23 25 28 31 33 34 31 33 34 36 37 36 42 45 47 49 52 57
10 9 10 7 8 7 5 3 3 2 2 3 5 7 10 13 17 19 19 20 22 23 24 24 25 27 29 31 36 34 33 37 38 39 40 45 49 49 50 56 57 59 61
6 5 4 4 5 5 5 6 7 7 8 10 11 13 15 16 18 21 22 23 26 27 29 30 31 33 34 34 36 35 37 41 45 48 49 51 52 54 56 59 61 62 67
7 6 5 6 6 7 9 10 12 13 14 15 16 17 19 20 20 22 24 25 27 33 37 35 36 39 39 39 40 37 40 45 49 46 50 53 55 57 62 61 63 64 72
10 9 9 8 8 9 11 12 14 14 16 17 18 20 21 22 23 25 27 29 30 33 37 40 42 40 41 40 40 42 45 45 47 51 54 58 60 61 64 68 69 78 78
9 9 10 12 12 11 12 14 16 17 17 17 17 20 22 21 24 29 30 31 37 40 40 43 37 43 40 42 43 50 50 50 53 55 58 59 60 62 67 70 77 79 80

GFSSE_500_spd_075.txt.gz
Wind_Speed
41 43 33 38 37 27 25 26 27 24 23 22 22 21 23 20 16 16 15 16 14 13 13 13 14 14 14 14 13 10 9 7 6 4 4 5 4 4 5 7 7 9 9
39 36 34 42 29 24 28 28 29 29 26 24 23 25 24 22 18 16 16 17 15 13 14 14 15 15 15 14 11 11 8 7 7 6 5 6 8 8 7 9 10 10 10
52 31 35 39 29 30 30 32 33 30 27 26 24 24 22 20 18 17 16 17 19 17 16 14 15 15 15 13 12 11 8 8 8 6 8 7 9 8 9 11 11 11 11
60 61 41 33 37 34 37 35 32 30 29 27 25 25 22 19 18 17 17 16 19 20 19 17 15 16 16 15 12 10 10 10 9 7 8 8 9 11 11 12 11 9 10
65 70 53 30 34 38 34 33 32 31 30 30 29 26 20 17 18 19 19 18 19 20 21 20 19 17 18 16 14 12 12 10 7 7 10 10 13 12 11 9 11 10 11
44 47 57 42 42 38 36 36 36 37 35 32 26 22 18 19 20 21 21 20 19 21 23 22 20 19 19 18 18 12 13 13 11 12 12 10 8 7 7 8 11 12 12
35 36 27 35 42 38 43 41 39 36 33 29 26 24 23 23 23 21 22 20 19 20 22 21 22 22 24 26 16 13 10 13 12 11 8 6 7 8 9 9 9 11 13
25 28 27 38 33 45 42 45 42 38 35 32 27 27 27 25 22 21 21 19 18 18 21 25 27 27 32 23 13 14 8 13 12 9 7 6 4 5 7 9 10 11 13
20 29 36 31 38 53 51 44 48 42 37 34 31 27 27 26 24 22 19 20 19 17 16 20 23 27 15 12 13 13 4 10 10 6 4 3 5 7 8 9 10 12 16
17 18 23 31 38 22 48 45 49 40 37 34 29 27 29 27 26 25 21 19 19 16 17 20 21 14 14 12 12 12 10 9 7 6 4 6 7 8 9 10 12 15 18
9 16 13 14 26 27 32 47 45 42 36 32 30 26 25 26 27 28 25 23 24 24 19 17 18 15 16 14 11 9 10 10 6 6 8 8 9 9 10 13 15 18 21
10 11 17 13 16 10 22 36 29 35 36 34 32 32 29 19 25 23 24 30 21 21 17 12 13 15 11 8 13 14 6 7 8 8 9 10 11 12 14 15 19 23 25
15 13 15 15 14 13 13 11 9 27 29 24 32 29 30 23 23 24 29 29 20 20 10 12 14 10 11 13 16 14 9 11 10 10 12 13 14 16 18 19 22 25 25
15 17 17 16 12 8 17 14 14 13 15 18 14 18 17 20 22 22 22 30 21 18 12 14 13 13 13 13 14 12 12 11 12 13 14 16 17 18 20 21 25 27 24
14 15 17 12 12 7 9 6 8 13 15 13 10 17 23 25 22 17 25 29 20 17 18 17 16 13 13 14 14 13 14 13 15 16 17 18 19 20 21 23 27 27 26
11 11 13 13 15 10 10 6 15 20 15 21 21 24 19 16 14 18 23 29 21 22 20 17 14 13 14 15 14 14 15 16 16 18 20 20 21 21 23 27 29 27 28
11 12 12 10 7 6 7 13 10 9 15 21 20 22 17 14 13 19 26 22 22 17 15 15 14 16 16 16 15 16 18 19 19 22 22 23 24 24 27 28 28 29 31
15 15 15 15 13 6 8 9 11 9 6 10 16 17 18 9 18 18 22 17 12 12 13 14 16 16 16 16 18 18 20 22 24 24 25 25 26 27 29 27 26 29 34
14 15 12 10 17 13 12 10 9 11 11 16 18 16 9 19 21 16 9 8 9 10 13 16 17 17 18 19 21 21 24 24 27 29 29 29 29 29 28 28 32 40 38
12 13 8 13 12 9 8 4 4 8 8 9 12 17 17 13 13 8 8 10 12 13 16 19 18 19 21 22 23 25 27 27 29 30 30 30 35 38 38 38 44 46 44
6 9 11 8 11 12 16 17 18 18 14 13 13 14 13 5 2 5 10 14 13 18 19 19 20 22 24 27 29 28 27 29 30 28 31 34 37 41 42 45 47 48 51
18 18 17 18 15 14 15 13 14 12 10 10 8 4 2 4 7 10 13 17 16 17 20 22 24 25 29 30 33 35 34 32 32 31 32 37 37 39 41 46 50 53 55
11 12 11 11 9 7 9 8 8 8 6 6 3 2 4 7 10 12 14 17 20 21 22 25 29 31 35 37 40 41 41 38 38 39 39 36 34 36 40 45 49 51 55
10 10 8 8 6 5 4 5 5 5 4 4 5 5 6 8 11 13 15 17 21 23 24 26 28 31 33 38 38 46 42 41 39 42 46 50 50 46 47 51 55 59 60
6 5 5 4 3 2 3 3 5 5 5 5 7 9 8 11 13 15 16 20 21 27 27 30 31 38 43 43 43 46 43 39 42 46 49 50 53 53 59 59 63 66 67
5 4 2 1 4 6 4 4 5 5 7 6 6 9 10 11 11 9 16 18 19 21 23 33 36 38 42 45 45 53 43 35 40 46 51 53 53 54 57 66 67 73 73